     2.00           OBSERVATION DATA    G (GPS)             RINEX VERSION / TYPE
teqc 1999Jan4 Victoria Andreatta 19990329 23:29:59UTC       PGM / RUN BY / DATE
Linux 2.0.30|PentPro|gcc|Linux|486/DX+                      COMMENT
BIT 2 OF LLI FLAGS DATA COLLECTED UNDER A/S CONDITION       COMMENT
                                                            MARKER NAME
                                                            OBSERVER / AGENCY
0 TURBOROGUE 98.05.13                                       REC # / TYPE / VERS
-Unknown- -Unknown-                                         ANT # / TYPE
 -1286062.4449 -4719312.7591  4082023.0638                  APPROX POSITION XYZ
        0.0000        0.0000        0.0000                  ANTENNA: DELTA H/E/N
     1     1                                                WAVELENGTH FACT L1/2
     5    L1    L2    C1    P2    P1                        # / TYPES OF OBSERV
SNR is mapped to RINEX snr flag value [1,4-9]               COMMENT
SNR: >316 >100 >31.6 >10 >3.2 >0 bad=0                      COMMENT
L1 & L2: 9 8 7 6 5 4 1                                      COMMENT
  1998    10    31     0     0    0.000000      GPS         TIME OF FIRST OBS
                                                            END OF HEADER
 98 10 31  0  0  0.0000000  0 10G31G 3G13G27G10G 2G18G19G16G22
  -1750467.394 7  -1363998.600 6  21524556.749    21524556.058
    225465.737 6    175688.177 5  22203577.707    22203576.661
  -2542508.374 5  -1981172.493 5  23033197.077    23033196.571
  -2244466.287 5  -1748932.265 5  23372869.853    23372867.974
  -1132803.760 4   -882703.246 4  24533261.457    24533258.318
  -1865859.058 4  -1453912.179 4  25248678.452    25248671.306
    490134.004 9    381923.424 9  20215673.133    20215673.225
  -1160137.656 9   -904003.112 9  20823513.458    20823512.464
   2686583.883 4   2093439.133 4  24143844.459    24143837.785
   2910146.813 4   2267647.137 4  24516538.555    24516537.581
 98 10 31  0  0  1.0000000  0 10G31G 3G13G27G10G 2G18G19G16G22
  -1752372.172 7  -1365482.841 6  21524194.399    21524193.576
    226006.427 6    176109.498 5  22203680.535    22203679.482
  -2545479.019 5  -1983487.286 5  23032631.689    23032631.654
  -2247171.426 5  -1751040.163 5  23372354.860    23372353.055
  -1133952.769 4   -883598.586 4  24533043.415    24533040.757
  -1868763.747 4  -1456175.532 4  25248124.412    25248117.992
    490994.870 9    382594.228 9  20215836.990    20215837.051
  -1161438.945 9   -905017.101 9  20823265.838    20823264.824
   2689867.726 4   2095997.970 4  24144469.160    24144463.949
   2913677.807 4   2270398.553 4  24517210.603    24517209.045
 98 10 31  0  0  2.0000000  0 10G31G 3G13G27G10G 2G18G19G16G22
  -1754276.386 7  -1366966.641 6  21523831.925    21523831.310
    226547.749 6    176531.303 5  22203783.574    22203782.730
  -2548449.433 5  -1985801.883 4  23032066.242    23032066.071
  -2249876.550 5  -1753148.047 5  23371840.104    23371838.027
  -1135101.218 4   -884493.474 4  24532824.741    24532821.277
  -1871668.295 4  -1458438.822 4  25247570.483    25247566.877
    491856.349 9    383265.512 9  20216000.919    20216000.958
  -1162740.009 9   -906030.917 9  20823018.265    20823017.228
   2693151.578 4   2098556.814 4  24145094.657    24145088.946
   2917208.817 4   2273149.983 4  24517881.997    24517881.060
 98 10 31  0  0  3.0000000  0 10G31G 3G13G27G10G 2G18G19G16G22
  -1756179.924 7  -1368449.916 6  21523469.868    21523469.104
    227089.794 6    176953.678 5  22203886.742    22203885.796
  -2551419.491 5  -1988116.211 5  23031501.433    23031500.824
  -2252581.562 5  -1755255.840 5  23371325.869    23371323.874
  -1136248.966 4   -885387.830 4  24532606.068    24532603.705
  -1874572.649 4  -1460701.964 4  25247018.934    25247012.836
    492718.544 9    383937.351 9  20216164.959    20216164.958
  -1164040.745 9   -907044.476 9  20822770.764    20822769.703
   2696435.528 4   2101115.772 4  24145718.614    24145712.775
   2920739.907 4   2275901.498 4  24518554.657    24518552.527
 98 10 31  0  0  4.0000000  0 10G31G 3G13G27G10G 2G18G19G16G22
  -1758082.827 7  -1369932.699 6  21523107.858    21523107.061
    227632.516 6    177376.582 5  22203989.880    22203989.018
  -2554389.248 5  -1990430.302 5  23030936.153    23030936.114
  -2255286.507 5  -1757363.585 5  23370810.679    23370808.687
  -1137396.106 4   -886281.692 4  24532388.040    24532383.681
  -1877476.864 4  -1462964.998 4  25246467.128    25246460.997
    493581.404 9    384609.710 9  20216329.122    20216329.220
  -1165341.196 9   -908057.811 9  20822523.202    20822522.338
   2699719.581 4   2103674.765 4  24146344.143    24146339.549
   2924271.089 4   2278653.050 4  24519226.639    24519224.403
 98 10 31  0  0  5.0000000  0 10G31G 3G27G13G 2G10G19G18G16G22
  -1759985.165 7  -1371415.035 6  21522745.691    21522744.852
    228175.869 6    177799.974 5  22204093.376    22204092.517
  -2257991.428 5  -1759471.314 5  23370296.222    23370294.129
  -2557358.746 5  -1992744.195 5  23030371.073    23030370.977
  -1880381.028 4  -1465227.944 4  25245912.353    25245907.283
  -1138542.629 4   -887175.097 4  24532169.230    24532166.280
  -1166641.405 9   -909070.961 9  20822275.837    20822274.865
    494444.887 9    385282.554 9  20216493.393    20216493.466
   2703003.697 4   2106233.793 4  24146968.576    24146965.433
   2927802.243 4   2281404.616 4  24519897.591    24519897.604
 98 10 31  0  0  6.0000000  0 10G31G 3G13G27G10G 2G18G19G16G22
  -1761887.039 7  -1372897.016 6  21522383.979    21522383.144
    228719.742 6    178223.773 5  22204196.955    22204196.008
  -2560328.108 5  -1995057.978 5  23029806.413    23029806.001
  -2260696.438 5  -1761579.113 5  23369781.131    23369779.487
  -1139688.730 4   -888068.147 4  24531951.056    24531948.362
  -1883285.189 4  -1467490.928 4  25245362.143    25245356.102
    495308.884 9    385955.799 9  20216657.869    20216657.898
  -1167941.495 9   -910084.016 9  20822028.402    20822027.568
   2706287.658 4   2108792.750 4  24147594.423    24147589.173
   2931333.291 4   2284156.093 4  24520570.326    24520568.563
 98 10 31  0  0  7.0000000  0 10G31G 3G27G13G 2G10G18G19G16G22
  -1763788.176 7  -1374378.418 6  21522021.956    21522021.269
    229264.409 6    178648.187 5  22204300.506    22204299.464
  -2263401.266 5  -1763686.760 5  23369266.947    23369264.327
  -2563297.054 5  -1997371.449 5  23029240.808    23029240.658
  -1886189.087 4  -1469753.703 4  25244808.408    25244802.565
  -1140834.055 4   -888960.586 4  24531733.227    24531730.303
    496173.668 9    386629.656 9  20216822.421    20216822.444
  -1169241.187 9   -911096.762 9  20821781.143    20821780.200
   2709571.861 4   2111351.843 4  24148218.672    24148213.565
   2934864.541 4   2286907.698 4  24521242.390    24521241.378
 98 10 31  0  0  8.0000000  0 10G31G 3G13G27G10G 2G18G19G16G22
  -1765688.701 7  -1375859.344 6  21521660.277    21521659.664
    229809.750 6    179073.132 5  22204404.117    22204403.313
  -2566265.721 5  -1999684.687 5  23028675.986    23028675.977
  -2266106.023 5  -1765794.360 5  23368752.094    23368750.255
  -1141978.713 4   -889852.564 4  24531515.096    24531511.349
  -1889092.826 4  -1472016.356 4  25244256.943    25244250.299
    497039.114 9    387304.031 9  20216987.011    20216987.221
  -1170540.598 9   -912109.288 9  20821533.782    20821532.819
   2712856.121 4   2113911.000 4  24148841.911    24148840.116
   2938395.807 4   2289659.345 4  24521914.006    24521913.698
 98 10 31  0  0  9.0000000  0 10G31G 3G13G27G10G 2G18G19G16G22
  -1767588.762 7  -1377339.908 6  21521298.839    21521297.817
    230355.619 6    179498.485 5  22204508.120    22204506.996
  -2569234.234 5  -2001997.808 5  23028111.054    23028110.933
  -2268810.874 5  -1767902.028 5  23368237.311    23368235.262
  -1143122.938 4   -890744.155 4  24531297.279    24531294.766
  -1891996.583 4  -1474279.014 4  25243703.426    25243697.133
    497905.080 9    387978.809 9  20217151.839    20217151.926
  -1171839.881 9   -913121.713 9  20821286.523    20821285.703
   2716140.280 4   2116470.094 4  24149469.930    24149462.724
   2941926.967 4   2292410.893 4  24522585.646    24522585.670
 98 10 31  0  0 10.0000000  0 10G31G 3G13G27G10G 2G18G19G16G22
  -1769488.330 7  -1378820.089 6  21520937.196    21520936.246
    230902.044 6    179924.271 5  22204612.110    22204611.230
  -2572202.588 5  -2004310.809 5  23027546.482    23027545.821
  -2271515.759 5  -1770009.733 5  23367722.498    23367721.079
  -1144266.635 4   -891635.340 4  24531080.164    24531077.035
  -1894900.360 4  -1476541.678 4  25243150.284    25243143.755
    498771.593 9    388654.016 9  20217316.813    20217316.860
  -1173138.982 9   -914133.998 9  20821039.430    20821038.475
   2719424.424 4   2119029.155 4  24150093.536    24150089.620
   2945458.056 4   2295162.401 4  24523258.306    24523257.284
 98 10 31  0  0 11.0000000  0 10G31G 3G13G27G10G 2G18G19G16G22
  -1771387.356 7  -1380299.847 6  21520576.182    21520575.001
    231449.078 6    180350.531 5  22204716.202    22204715.205
  -2575170.717 5  -2006623.634 5  23026981.548    23026980.870
  -2274220.656 5  -1772117.435 5  23367207.791    23367206.128
  -1145409.748 4   -892526.072 4  24530862.595    24530860.196
  -1897803.972 4  -1478804.262 4  25242598.773    25242593.771
    499638.704 9    389329.687 9  20217481.819    20217481.854
  -1174437.851 9   -915146.103 9  20820792.193    20820791.223
   2722708.567 4   2121588.233 4  24150718.836    24150714.476
   2948989.140 4   2297913.882 4  24523929.319    24523929.169
 98 10 31  0  0 12.0000000  0 10G31G 3G13G27G10G 2G18G19G16G22
  -1773285.764 7  -1381779.124 6  21520214.747    21520213.874
    231996.796 6    180777.326 5  22204820.643    22204819.567
  -2578138.555 5  -2008936.228 5  23026416.829    23026416.437
  -2276925.469 5  -1774225.074 5  23366692.986    23366691.303
  -1146552.216 4   -893416.299 4  24530645.002    24530641.598
  -1900707.487 4  -1481066.723 4  25242046.003    25242038.868
    500506.493 9    390005.887 9  20217646.963    20217647.050
  -1175736.427 9   -916157.978 9  20820545.014    20820544.048
   2725992.818 4   2124147.390 4  24151344.365    24151339.228
   2952520.250 4   2300665.407 4  24524601.465    24524600.738
 98 10 31  0  0 13.0000000  0 10G31G 3G27G13G 2G10G18G19G16G22
  -1775183.632 7  -1383257.980 6  21519853.565    21519852.678
    232545.135 6    181204.605 5  22204924.688    22204923.890
  -2279630.271 5  -1776332.717 5  23366177.961    23366175.962
  -2581106.172 5  -2011248.658 5  23025852.544    23025851.619
  -1903610.928 4  -1483329.140 4  25241492.148    25241489.413
  -1147694.110 4   -894306.092 4  24530427.595    24530425.831
    501374.885 9    390682.556 9  20217812.232    20217812.338
  -1177034.765 9   -917169.668 9  20820298.043    20820296.937
   2729277.050 4   2126706.523 4  24151969.918    24151963.940
   2956051.371 4   2303416.940 4  24525273.756    24525273.171
 98 10 31  0  0 14.0000000  0 10G31G 3G13G27G10G 2G18G19G16G22
  -1777080.905 7  -1384736.372 6  21519492.566    21519491.605
    233094.148 6    181632.410 5  22205029.459    22205028.117
  -2584073.508 5  -2013560.863 4  23025287.563    23025286.906
  -2282335.023 5  -1778440.304 5  23365663.568    23365661.258
  -1148835.391 4   -895195.400 4  24530210.637    24530206.700
  -1906514.200 4  -1485591.435 4  25240941.909    25240934.247
    502243.937 9    391359.739 9  20217977.571    20217977.719
  -1178332.811 9   -918181.132 9  20820050.945    20820050.091
   2732561.359 4   2129265.732 4  24152594.827    24152589.054
   2959582.553 4   2306168.508 4  24525945.131    24525944.510
 98 10 31  0  0 15.0000000  0 10G31G 3G13G27G10G 2G18G19G16G22
  -1778977.578 7  -1386214.300 6  21519131.584    21519130.647
    233643.841 6    182060.743 5  22205133.752    22205132.717
  -2587040.569 5  -2015872.854 5  23024723.147    23024722.614
  -2285039.694 5  -1780547.835 5  23365149.052    23365147.065
  -1149976.044 4   -896084.207 4  24529993.893    24529990.115
  -1909417.342 4  -1487853.632 4  25240388.525    25240383.627
    503113.653 9    392037.441 9  20218143.141    20218143.228
  -1179630.551 9   -919192.356 9  20819803.948    20819803.073
   2735845.750 4   2131825.006 4  24153219.525    24153215.621
   2963113.778 4   2308920.114 4  24526618.312    24526616.229
 98 10 31  0  0 16.0000000  0 10G31G 3G13G27G10G 2G18G19G16G22
  -1780873.643 7  -1387691.751 6  21518770.844    21518769.892
    234194.230 6    182489.617 5  22205238.664    22205237.619
  -2590007.332 5  -2018184.617 5  23024158.566    23024158.230
  -2287744.274 5  -1782655.300 5  23364634.531    23364632.436
  -1151116.031 4   -896972.507 4  24529776.651    24529773.212
  -1912320.366 4  -1490115.694 4  25239836.428    25239828.520
    503984.041 9    392715.665 9  20218308.767    20218308.862
  -1180927.969 9   -920203.329 9  20819557.235    20819556.230
   2739130.219 4   2134384.316 4  24153844.983    24153835.722
   2966645.075 4   2311671.777 4  24527290.171    24527289.217
 98 10 31  0  0 17.0000000  0 10G31G 3G13G27G10G 2G18G19G16G22
  -1782769.189 7  -1389168.796 6  21518410.244    21518409.175
    234745.213 6    182918.952 5  22205343.214    22205342.502
  -2592973.891 5  -2020496.220 5  23023593.592    23023593.439
  -2290448.869 5  -1784762.772 5  23364119.990    23364118.030
  -1152255.471 4   -897860.372 4  24529560.186    24529556.954
  -1915223.308 4  -1492377.728 4  25239283.996    25239277.279
    504855.011 9    393394.344 9  20218474.513    20218474.646
  -1182225.175 9   -921214.138 9  20819310.333    20819309.451
   2742414.665 4   2136943.611 4  24154468.181    24154464.228
   2970176.335 4   2314423.408 4  24527961.781    24527960.805
 98 10 31  0  0 18.0000000  0 10G31G 3G13G27G10G 2G18G19G16G22
  -1784664.149 7  -1390645.389 6  21518049.481    21518048.725
    235296.851 6    183348.805 5  22205448.527    22205447.552
  -2595940.193 5  -2022807.613 5  23023029.291    23023029.234
  -2293153.417 5  -1786870.207 5  23363605.134    23363602.868
  -1153394.303 4   -898747.770 4  24529342.857    24529341.250
  -1918126.085 4  -1494639.658 4  25238732.604    25238726.349
    505726.620 9    394073.520 9  20218640.376    20218640.364
  -1183522.110 9   -922224.735 9  20819063.634    20819062.668
   2745699.137 4   2139502.949 4  24155093.993    24155089.863
   2973707.623 4   2317175.062 4  24528633.975    24528632.424
 98 10 31  0  0 19.0000000  0 10G31G 3G13G27G10G 2G18G19G16G22
  -1786558.545 7  -1392121.538 6  21517689.050    21517688.063
    235849.146 6    183779.160 5  22205553.404    22205552.773
  -2598906.239 5  -2025118.818 5  23022464.939    23022464.419
  -2295857.915 5  -1788977.603 5  23363090.095    23363088.012
  -1154532.503 4   -899634.702 4  24529125.561    24529122.566
  -1921028.813 4  -1496901.476 4  25238180.206    25238172.811
    506598.861 9    394753.188 9  20218806.274    20218806.363
  -1184818.765 9   -923235.115 9  20818816.890    20818815.864
   2748983.628 4   2142062.301 4  24155719.831    24155714.134
   2977238.959 4   2319926.751 4  24529305.258    24529304.425
 98 10 31  0  0 20.0000000  0 10G31G 3G13G27G10G 2G18G19G16G22
  -1788452.205 7  -1393597.115 6  21517328.726    21517327.822
    236402.239 6    184210.149 5  22205658.743    22205657.937
  -2601871.851 5  -2027429.683 5  23021900.591    23021900.769
  -2298562.214 5  -1791084.841 5  23362575.903    23362572.906
  -1155669.990 4   -900521.021 4  24528910.265    24528907.062
  -1923931.208 4  -1499163.116 4  25237626.140    25237620.329
    507471.894 9    395433.474 9  20218972.434    20218972.524
  -1186115.000 9   -924245.166 9  20818570.095    20818569.231
   2752268.336 4   2144621.815 4  24156344.957    24156340.286
   2980770.469 4   2322678.575 4  24529977.347    24529976.790
 98 10 31  0  0 21.0000000  0 10G31G 3G13G27G10G 2G18G19G16G22
  -1790345.432 7  -1395072.354 6  21516968.461    21516967.365
    236955.860 6    184641.541 5  22205763.985    22205763.226
  -2604837.326 5  -2029740.435 5  23021336.195    23021336.023
  -2301266.595 5  -1793192.145 5  23362061.232    23362058.511
  -1156806.956 4   -901406.969 4  24528693.887    24528689.654
  -1926833.660 4  -1501424.737 4  25237074.037    25237068.863
    508345.420 9    396114.144 9  20219138.659    20219138.671
  -1187411.108 9   -925255.119 9  20818323.493    20818322.597
   2755552.974 4   2147181.252 4  24156968.301    24156965.781
   2984301.866 4   2325430.310 4  24530649.805    24530647.983
 98 10 31  0  0 22.0000000  0 10G31G 3G13G27G10G 2G18G19G16G22
  -1792238.163 7  -1396547.209 6  21516608.044    21516607.278
    237510.070 6    185073.395 5  22205869.468    22205868.702
  -2607802.614 5  -2032051.046 5  23020772.128    23020771.844
  -2303970.994 5  -1795299.467 5  23361546.355    23361543.908
  -1157943.347 4   -902292.481 4  24528477.413    24528475.324
  -1929736.025 4  -1503686.311 4  25236522.720    25236516.485
    509219.516 9    396795.258 9  20219304.943    20219305.042
  -1188707.015 9   -926264.915 9  20818076.946    20818076.029
   2758837.501 4   2149740.645 4  24157593.000    24157589.491
   2987833.235 4   2328182.038 4  24531321.642    24531321.169
 98 10 31  0  0 23.0000000  0 10G31G 3G13G27G10G 2G18G19G16G22
  -1794130.304 7  -1398021.602 6  21516248.239    21516247.324
    238064.960 6    185505.779 5  22205975.175    22205974.112
  -2610767.606 5  -2034361.423 5  23020207.717    23020207.710
  -2306675.315 5  -1797406.731 5  23361032.120    23361030.190
  -1159079.125 4   -903177.500 4  24528261.434    24528257.346
  -1932638.247 4  -1505947.795 4  25235972.552    25235963.348
    510094.281 9    397476.893 9  20219471.400    20219471.365
  -1190002.616 9   -927274.472 9  20817830.400    20817829.512
   2762122.117 4   2152300.070 4  24158218.791    24158212.909
   2991364.651 4   2330933.787 4  24531993.241    24531992.237
 98 10 31  0  0 24.0000000  0 10G31G 3G13G27G10G 2G18G19G16G22
  -1796021.875 7  -1399495.550 6  21515888.207    21515887.321
    238620.509 6    185938.675 5  22206080.981    22206079.830
  -2613732.322 5  -2036671.595 5  23019643.650    23019643.596
  -2309379.598 5  -1799513.954 5  23360517.520    23360515.655
  -1160214.281 4   -904062.044 4  24528046.419    24528042.498
  -1935540.353 4  -1508209.160 4  25235418.013    25235413.494
    510969.685 9    398159.027 9  20219637.977    20219638.035
  -1191297.968 9   -928283.837 9  20817583.882    20817583.016
   2765406.758 4   2154859.524 4  24158844.778    24158839.057
   2994896.091 4   2333685.556 4  24532665.266    24532665.426
 98 10 31  0  0 25.0000000  0 10G31G 3G13G27G10G 2G18G19G16G22
  -1797912.896 7  -1400969.070 6  21515528.401    21515527.579
    239176.708 6    186372.077 5  22206186.851    22206185.548
  -2616696.788 5  -2038981.562 5  23019079.769    23019078.960
  -2312083.836 5  -1801621.151 5  23360003.011    23360000.504
  -1161348.812 4   -904946.077 4  24527829.493    24527827.213
  -1938442.320 4  -1510470.428 4  25234863.269    25234859.935
    511845.709 9    398841.644 9  20219804.722    20219804.699
  -1192593.056 9   -929292.993 9  20817337.564    20817336.542
   2768691.421 4   2157418.986 4  24159470.382    24159463.200
   2998427.554 4   2336437.356 4  24533338.147    24533337.389
 98 10 31  0  0 26.0000000  0 10G31G 3G13G27G10G 2G18G19G16G22
  -1799803.346 7  -1402442.146 6  21515168.560    21515167.783
    239733.562 6    186805.990 5  22206292.700    22206291.855
  -2619660.983 5  -2041291.319 5  23018515.573    23018514.948
  -2314788.036 5  -1803728.311 5  23359488.215    23359486.438
  -1162482.737 4   -905829.648 4  24527613.969    24527610.106
  -1941344.219 4  -1512731.634 4  25234314.054    25234308.312
    512722.355 9    399524.742 9  20219971.493    20219971.544
  -1193887.894 9   -930301.955 9  20817091.064    20817090.154
   2771976.089 4   2159978.494 4  24160095.370    24160088.566
   3001959.046 4   2339189.164 4  24534008.825    24534008.074
 98 10 31  0  0 27.0000000  0 10G31G 3G13G27G10G 2G18G19G16G22
  -1801693.328 7  -1403914.860 6  21514809.011    21514808.154
    240290.982 6    187240.343 5  22206398.788    22206397.765
  -2622625.000 5  -2043600.940 5  23017951.488    23017951.454
  -2317492.275 5  -1805835.508 5  23358973.725    23358971.122
  -1163616.152 4   -906712.812 4  24527397.423    24527396.247
  -1944246.044 4  -1514992.814 4  25233761.534    25233752.912
    513599.533 9    400208.260 9  20220138.412    20220138.547
  -1195182.563 9   -931310.786 9  20816844.717    20816843.830
   2775260.688 4   2162537.898 4  24160719.192    24160714.649
   3005490.446 4   2341940.906 4  24534682.067    24534681.241
 98 10 31  0  0 28.0000000  0 10G31G 3G13G27G10G 2G18G19G16G22
  -1803582.703 7  -1405387.097 6  21514449.366    21514448.507
    240849.110 6    187675.251 5  22206505.078    22206503.801
  -2625588.693 5  -2045910.307 4  23017387.755    23017387.599
  -2320196.412 5  -1807942.621 5  23358459.190    23358456.810
  -1164748.854 4   -907595.453 4  24527181.599    24527178.715
  -1947147.714 4  -1517253.834 4  25233208.364    25233201.441
    514477.388 9    400892.302 9  20220305.534    20220305.613
  -1196476.901 9   -932319.360 9  20816598.425    20816597.528
   2778545.330 4   2165097.379 4  24161343.466    24161338.280
   3009021.942 4   2344692.728 4  24535353.693    24535352.288
 98 10 31  0  0 29.0000000  0 10G31G 3G13G27G 2G10G19G18G16G22
  -1805471.695 7  -1406859.035 6  21514089.978    21514089.030
    241407.711 6    188110.524 5  22206611.375    22206610.491
  -2628552.297 5  -2048219.604 5  23016823.510    23016823.548
  -2322900.672 5  -1810049.839 5  23357944.285    23357942.321
  -1950049.415 4  -1519514.890 4  25232655.589    25232650.472
  -1165881.144 4   -908477.750 4  24526967.133    24526963.397
  -1197771.159 9   -933327.872 9  20816352.046    20816351.216
    515355.691 9    401576.696 9  20220472.606    20220472.656
   2781829.845 4   2167656.734 4  24161968.846    24161965.442
   3012553.256 4   2347444.413 4  24536025.633    24536025.313
 98 10 31  0  0 30.0000000  0 10G31G 3G13G27G10G 2G18G19G16G22
  -1807359.922 7  -1408330.379 6  21513730.567    21513729.947
    241967.165 6    188546.465 5  22206717.933    22206716.603
  -2631515.435 5  -2050528.538 4  23016259.578    23016259.578
  -2325604.677 5  -1812156.846 5  23357429.474    23357427.557
  -1167012.619 4   -909359.417 4  24526751.203    24526749.787
  -1952950.817 4  -1521775.719 4  25232104.867    25232099.625
    516234.819 9    402261.730 9  20220639.891    20220639.951
  -1199064.952 9   -934336.021 9  20816105.887    20816105.061
   2785114.556 4   2170216.250 4  24162593.138    24162591.234
   3016084.842 4   2350196.281 4  24536697.389    24536696.475
 98 10 31  0  0 31.0000000  0 10G31G 3G27G13G 2G10G18G19G16G22
  -1809247.480 7  -1409801.204 6  21513371.434    21513370.702
    242527.397 6    188983.011 5  22206824.489    22206823.289
  -2328308.507 5  -1814263.723 5  23356915.056    23356912.916
  -2634478.205 5  -2052837.191 4  23015695.807    23015696.071
  -1955851.958 4  -1524036.343 4  25231552.950    25231546.796
  -1168143.336 4   -910240.495 4  24526535.337    24526533.704
    517114.672 9    402947.329 9  20220807.290    20220807.320
  -1200358.368 9   -935343.876 9  20815859.759    20815858.860
   2788399.421 4   2172775.892 4  24163220.308    24163216.072
   3019616.553 4   2352948.261 4  24537369.666    24537369.248
 98 10 31  0  0 32.0000000  0 10G31G 3G13G27G10G 2G18G19G16G22
  -1811134.479 7  -1411271.591 6  21513012.344    21513011.529
    243088.278 6    189420.060 5  22206931.181    22206930.093
  -2637440.721 5  -2055145.638 5  23015132.124    23015131.968
  -2331012.289 5  -1816370.565 5  23356400.601    23356398.617
  -1169273.420 4   -911121.089 4  24526321.277    24526317.957
  -1958752.971 4  -1526296.876 4  25231001.394    25230996.779
    517995.151 9    403633.418 9  20220974.888    20220975.033
  -1201651.515 9   -936351.521 9  20815613.677    20815612.913
   2791684.286 4   2175335.515 4  24163846.527    24163841.088
   3023148.260 4   2355700.252 4  24538041.334    24538039.966
 98 10 31  0  0 33.0000000  0 10G31G 3G13G27G10G 2G18G19G16G22
  -1813021.065 7  -1412741.656 6  21512653.322    21512652.595
    243649.665 6    189857.507 5  22207038.041    22207036.922
  -2640403.119 5  -2057454.004 5  23014568.203    23014567.813
  -2333716.155 5  -1818477.466 5  23355886.465    23355884.014
  -1170403.041 4   -912001.311 4  24526105.497    24526103.126
  -1961654.049 4  -1528557.456 4  25230450.025    25230442.893
    518876.117 9    404319.884 9  20221142.527    20221142.559
  -1202944.550 9   -937359.078 9  20815367.581    20815366.868
   2794969.053 4   2177895.051 4  24164469.841    24164465.612
   3026679.853 4   2358452.148 4  24538713.399    24538713.772
 98 10 31  0  0 34.0000000  0 10G31G 3G13G27G10G 2G18G19G16G22
  -1814907.096 7  -1414211.286 6  21512294.492    21512293.535
    244211.716 6    190295.470 5  22207145.001    22207143.689
  -2643365.257 5  -2059762.158 4  23014004.771    23014004.667
  -2336419.950 5  -1820584.309 5  23355371.446    23355369.171
  -1171532.040 4   -912881.037 4  24525890.795    24525888.201
  -1964554.984 4  -1530817.900 4  25229894.737    25229889.761
    519757.706 9    405006.837 9  20221310.261    20221310.322
  -1204237.309 9   -938366.422 9  20815121.627    20815120.859
   2798253.828 4   2180454.617 4  24165095.158    24165088.542
   3030211.482 4   2361204.074 4  24539385.754    24539384.421
 98 10 31  0  0 35.0000000  0 10G31G 3G13G27G10G 2G18G19G16G22
  -1816792.727 7  -1415680.608 6  21511935.558    21511934.894
    244774.246 6    190733.802 5  22207252.230    22207250.791
  -2646327.317 5  -2062070.251 5  23013440.981    23013440.614
  -2339123.850 5  -1822691.244 5  23354857.217    23354855.160
  -1172660.561 4   -913760.401 4  24525676.518    24525674.414
  -1967455.946 4  -1533078.402 4  25229344.916    25229337.963
    520639.742 9    405694.138 9  20221478.083    20221478.167
  -1205529.991 9   -939373.705 9  20814875.643    20814874.782
   2801538.421 4   2183014.062 4  24165721.426    24165715.644
   3033742.960 4   2363955.872 4  24540056.930    24540056.958
 98 10 31  0  0 36.0000000  0 10G31G 3G13G27G10G 2G18G19G16G22
  -1818677.906 7  -1417149.576 6  21511576.836    21511576.215
    245337.318 6    191172.562 5  22207359.155    22207358.008
  -2649289.206 5  -2064378.217 5  23012877.203    23012876.973
  -2341827.793 5  -1824798.212 5  23354342.667    23354340.596
  -1173788.580 4   -914639.365 4  24525462.363    24525458.931
  -1970356.930 4  -1535338.919 4  25228790.518    25228786.250
    521522.307 9    406381.852 9  20221646.055    20221646.199
  -1206822.521 9   -940380.869 9  20814629.701    20814628.792
   2804822.960 4   2185573.437 4  24166344.399    24166340.050
   3037274.366 4   2366707.611 4  24540729.849    24540727.747
 98 10 31  0  0 37.0000000  0 10G31G 3G13G27G10G 2G18G19G16G22
  -1820562.396 7  -1418618.007 6  21511218.206    21511217.456
    245901.169 6    191611.927 5  22207466.501    22207465.355
  -2652250.719 5  -2066685.890 5  23012313.542    23012313.524
  -2344531.542 5  -1826905.019 5  23353828.339    23353825.934
  -1174915.812 4   -915517.742 4  24525246.745    24525244.972
  -1973257.616 4  -1537599.209 4  25228240.533    25228234.592
    522405.623 9    407070.150 9  20221814.178    20221814.154
  -1208114.666 9   -941387.734 9  20814383.792    20814382.866
   2808107.637 4   2188132.921 4  24166969.214    24166965.408
   3040805.925 4   2369459.489 4  24541401.662    24541401.576
 98 10 31  0  0 38.0000000  0 10G31G 3G13G27G10G 2G18G19G16G22
  -1822446.381 7  -1420086.046 6  21510859.689    21510859.046
    246465.606 6    192051.750 5  22207574.079    22207572.665
  -2655212.024 5  -2068993.389 4  23011750.538    23011749.785
  -2347235.284 5  -1829011.831 5  23353313.501    23353311.858
  -1176042.488 4   -916395.658 4  24525032.899    24525031.331
  -1976158.320 4  -1539859.447 4  25227688.330    25227680.962
    523289.509 9    407758.892 9  20221982.367    20221982.436
  -1209406.602 9   -942394.435 9  20814138.008    20814137.182
   2811392.269 4   2190692.361 4  24167596.056    24167589.743
   3044337.460 4   2372211.325 4  24542074.277    24542072.604
 98 10 31  0  0 39.0000000  0 10G31G 3G13G27G10G 2G18G19G16G22
  -1824329.872 7  -1421553.700 6  21510501.346    21510500.591
    247030.619 6    192492.020 5  22207681.463    22207680.082
  -2658173.132 5  -2071300.748 5  23011186.704    23011186.722
  -2349939.040 5  -1831118.645 5  23352799.198    23352796.953
  -1177168.616 4   -917273.165 4  24524818.401    24524815.374
  -1979058.930 4  -1542119.658 4  25227137.506    25227131.312
    524173.950 9    408448.068 9  20222150.671    20222150.777
  -1210698.355 9   -943400.996 9  20813892.110    20813891.334
   2814676.824 4   2193251.761 4  24168218.629    24168216.006
   3047868.928 4   2374963.125 4  24542745.418    24542745.075
 98 10 31  0  0 40.0000000  0 10G31G 3G13G27G10G 2G18G19G16G22
  -1826212.665 7  -1423020.811 6  21510143.031    21510142.289
    247596.425 6    192932.908 5  22207788.930    22207787.781
  -2661133.850 5  -2073607.795 5  23010623.499    23010622.671
  -2352642.598 5  -1833225.308 5  23352284.544    23352282.312
  -1178293.969 4   -918150.071 4  24524604.301    24524602.497
  -1981959.222 4  -1544379.635 4  25226584.736    25226578.664
    525059.155 9    409137.838 9  20222319.091    20222319.219
  -1211989.720 9   -944407.251 9  20813646.383    20813645.500
   2817961.527 4   2195811.264 4  24168846.263    24168839.912
   3051400.606 4   2377715.065 4  24543417.738    24543416.764
 98 10 31  0  0 41.0000000  0 10G31G 3G13G27G10G 2G18G19G16G22
  -1828094.613 7  -1424487.258 6  21509784.869    21509784.317
    248163.154 6    193374.518 5  22207897.013    22207895.627
  -2664094.016 5  -2075914.412 5  23010060.252    23010059.401
  -2355345.823 5  -1835331.713 5  23351769.975    23351768.063
  -1179418.440 4   -919026.270 4  24524390.020    24524388.362
  -1984859.120 4  -1546639.305 4  25226032.607    25226024.836
    525945.276 9    409828.322 9  20222487.752    20222487.740
  -1213280.536 9   -945413.080 9  20813400.681    20813399.928
   2821246.524 4   2198370.996 4  24169471.117    24169465.892
   3054932.571 4   2380467.251 4  24544089.827    24544088.629
 98 10 31  0  0 42.0000000  0 10G31G 3G13G27G10G 2G18G19G16G22
  -1829976.016 7  -1425953.288 6  21509426.866    21509426.189
    248730.518 6    193816.618 5  22208004.846    22208003.647
  -2667053.933 5  -2078220.843 5  23009496.497    23009496.476
  -2358049.019 5  -1837438.092 5  23351255.814    23351253.658
  -1180542.311 4   -919902.017 4  24524176.335    24524173.183
  -1987758.944 4  -1548898.882 4  25225480.341    25225475.931
    526832.016 9    410519.288 9  20222656.503    20222656.583
  -1214571.113 9   -946418.723 9  20813155.109    20813154.236
   2824531.473 4   2200930.701 4  24170096.019    24170091.437
   3058464.548 4   2383219.440 4  24544762.374    24544761.138
 98 10 31  0  0 43.0000000  0 10G31G 3G13G27G10G 2G18G19G16G22
  -1831856.981 7  -1427418.969 6  21509068.928    21509068.233
    249298.410 6    194259.135 5  22208113.045    22208111.497
  -2670013.693 5  -2080527.144 5  23008933.414    23008933.379
  -2360752.257 5  -1839544.512 5  23350741.623    23350739.069
  -1181665.679 4   -920777.355 4  24523962.688    24523960.773
  -1990658.724 4  -1551158.448 4  25224929.375    25224922.969
    527719.278 9    411210.662 9  20222825.310    20222825.336
  -1215861.548 9   -947424.255 9  20812909.624    20812908.713
   2827816.337 4   2203490.336 4  24170720.915    24170715.597
   3061996.467 4   2385971.578 4  24545434.199    24545433.237
 98 10 31  0  0 44.0000000  0 10G31G 3G13G27G10G 2G18G19G16G22
  -1833737.352 7  -1428884.195 6  21508711.040    21508710.469
    249866.983 6    194702.180 5  22208221.245    22208219.837
  -2672973.159 5  -2082833.216 5  23008370.506    23008369.968
  -2363455.430 5  -1841650.869 5  23350226.786    23350224.863
  -1182788.436 4   -921652.221 4  24523748.908    24523747.537
  -1993558.367 4  -1553417.898 4  25224376.708    25224372.592
    528607.207 9    411902.555 9  20222994.302    20222994.311
  -1217151.707 9   -948429.572 9  20812664.005    20812663.295
   2831101.253 4   2206050.006 4  24171345.837    24171340.706
   3065528.431 4   2388723.776 4  24546106.064    24546105.769
 98 10 31  0  0 45.0000000  0 10G31G 3G13G27G10G 2G18G19G16G22
  -1835617.120 7  -1430348.947 6  21508353.281    21508352.796
    250436.244 6    195145.760 5  22208329.641    22208328.277
  -2675932.309 5  -2085139.039 5  23007807.232    23007806.607
  -2366158.507 5  -1843757.161 5  23349712.729    23349710.262
  -1183910.512 4   -922526.575 4  24523535.992    24523531.266
  -1996457.805 4  -1555677.215 4  25223825.342    25223820.273
    529495.818 9    412594.979 9  20223163.388    20223163.412
  -1218441.568 9   -949434.657 9  20812418.589    20812417.794
   2834386.193 4   2208609.708 4  24171970.604    24171964.369
   3069060.487 4   2391476.020 4  24546778.278    24546777.607
 98 10 31  0  0 46.0000000  0 10G31G 3G13G27G10G 2G18G19G16G22
  -1837496.254 7  -1431813.203 6  21507995.857    21507995.118
    251006.237 6    195589.911 5  22208437.974    22208436.732
  -2678891.111 5  -2087444.600 5  23007244.350    23007244.100
  -2368861.442 5  -1845863.341 5  23349198.304    23349196.025
  -1185031.913 4   -923400.394 4  24523322.529    24523320.093
  -1999357.075 4  -1557936.359 4  25223274.383    25223268.444
    530385.154 9    413287.969 9  20223332.618    20223332.591
  -1219731.094 9   -950439.481 9  20812173.180    20812172.470
   2837671.248 4   2211169.489 4  24172596.205    24172592.238
   3072592.666 4   2394228.367 4  24547450.440    24547449.781
 98 10 31  0  0 47.0000000  0 10G31G 3G13G27G10G 2G18G19G16G22
  -1839374.820 7  -1433277.019 6  21507638.382    21507637.655
    251576.886 6    196034.575 5  22208546.476    22208545.273
  -2681849.627 5  -2089749.937 5  23006680.934    23006681.092
  -2371564.319 5  -1847969.477 5  23348683.747    23348681.893
  -1186152.723 4   -924273.734 4  24523109.446    24523106.101
  -2002256.201 4  -1560195.437 4  25222721.657    25222713.425
    531275.135 9    413981.462 9  20223501.998    20223502.010
  -1221020.349 9   -951444.093 9  20811927.842    20811927.050
   2840956.338 4   2213729.305 4  24173222.142    24173216.188
   3076124.886 4   2396980.757 4  24548122.836    24548121.853
 98 10 31  0  0 48.0000000  0 10G31G 3G13G27G10G 2G18G19G16G22
  -1841252.921 7  -1434740.472 6  21507280.934    21507280.415
    252148.076 6    196479.660 5  22208655.406    22208653.909
  -2684807.984 5  -2092055.145 5  23006118.371    23006118.374
  -2374267.239 5  -1850075.644 5  23348169.621    23348167.948
  -1187273.005 4   -925146.685 4  24522895.467    24522892.319
  -2005155.269 4  -1562454.458 4  25222170.408    25222162.143
    532165.659 9    414675.375 9  20223671.460    20223671.520
  -1222309.434 9   -952448.575 9  20811682.575    20811681.783
   2844241.314 4   2216289.025 4  24173846.696    24173841.181
   3079657.028 4   2399733.073 4  24548794.390    24548794.318
 98 10 31  0  0 49.0000000  0 10G31G 3G13G27G10G 2G18G19G16G22
  -1843130.543 7  -1436203.552 6  21506923.573    21506923.189
    252719.843 6    196925.193 5  22208764.057    22208762.829
  -2687766.152 5  -2094360.209 4  23005555.386    23005554.877
  -2376970.170 5  -1852181.819 5  23347655.441    23347653.287
  -1188392.775 4   -926019.246 4  24522682.893    24522680.566
  -2008054.340 4  -1564713.455 4  25221618.058    25221614.532
    533056.757 9    415369.737 9  20223841.052    20223841.029
  -1223598.340 9   -953452.913 9  20811437.247    20811436.450
   2847526.201 4   2218848.683 4  24174471.765    24174467.346
   3083189.133 4   2402485.368 4  24549466.941    24549465.611
 98 10 31  0  0 50.0000000  0 10G31G 3G13G27G10G 2G18G19G16G22
  -1845007.457 7  -1437666.082 6  21506566.546    21506565.972
    253292.410 6    197371.348 5  22208872.953    22208871.958
  -2690723.906 5  -2096664.947 5  23004992.491    23004991.966
  -2379672.886 5  -1854287.822 5  23347140.895    23347138.582
  -1189511.810 4   -926891.221 4  24522470.116    24522468.437
  -2010953.091 4  -1566972.228 4  25221066.469    25221060.297
    533948.638 9    416064.711 9  20224010.704    20224010.717
  -1224886.848 9   -954456.944 9  20811192.064    20811191.384
   2850811.320 4   2221408.486 4  24175097.402    24175091.421
   3086721.441 4   2405237.798 4  24550139.773    24550138.353
 98 10 31  0  0 51.0000000  0 10G31G 3G13G27G10G 2G18G19G16G22
  -1846883.698 7  -1439128.086 6  21506209.535    21506208.899
    253865.718 6    197818.087 5  22208982.111    22208980.841
  -2693681.283 5  -2098969.393 4  23004429.956    23004429.325
  -2382375.434 5  -1856393.698 5  23346626.696    23346624.838
  -1190630.135 4   -927762.624 4  24522256.980    24522253.970
  -2013851.612 4  -1569230.809 4  25220514.516    25220508.573
    534841.275 9    416760.271 9  20224180.655    20224180.673
  -1226174.989 9   -955460.690 9  20810946.959    20810946.170
   2854096.492 4   2223968.384 4  24175721.082    24175717.173
   3090253.868 4   2407990.357 4  24550811.390    24550810.361
 98 10 31  0  0 52.0000000  0 10G31G 3G13G27G10G 2G18G19G16G22
  -1848759.550 7  -1440589.788 6  21505852.554    21505851.974
    254439.535 6    198265.219 5  22209091.258    22209090.075
  -2696638.534 5  -2101273.742 5  23003866.879    23003866.653
  -2385078.050 5  -1858499.631 5  23346112.453    23346110.650
  -1191747.988 4   -928633.677 4  24522043.992    24522042.595
  -2016750.137 4  -1571489.420 4  25219964.326    25219958.262
    535734.404 9    417456.216 9  20224350.590    20224350.575
  -1227463.018 9   -956464.346 9  20810701.843    20810701.040
   2857381.557 4   2226528.159 4  24176347.572    24176341.113
   3093786.214 4   2410742.827 4  24551483.421    24551482.599
 98 10 31  0  0 53.0000000  0 10G31G 3G13G27G10G 2G18G19G16G22
  -1850634.716 7  -1442050.953 6  21505495.561    21505495.234
    255014.125 6    198712.951 5  22209200.634    22209199.553
  -2699595.385 5  -2103577.785 4  23003304.342    23003303.649
  -2387780.489 5  -1860605.423 5  23345597.947    23345596.254
  -1192865.138 4   -929504.185 4  24521832.014    24521829.247
  -2019648.450 4  -1573747.808 4  25219413.833    25219405.631
    536628.300 9    418152.760 9  20224520.693    20224520.598
  -1228750.686 9   -957467.722 9  20810456.826    20810456.058
   2860666.747 4   2229088.053 4  24176971.989    24176967.717
   3097318.710 4   2413495.422 4  24552156.172    24552154.752
 98 10 31  0  0 54.0000000  0 10G31G 3G27G13G 2G18G19G10G16G22
  -1852509.444 7  -1443511.781 6  21505139.112    21505138.465
    255589.243 6    199161.093 5  22209310.118    22209308.799
  -2390482.982 5  -1862711.260 5  23345083.560    23345081.866
  -2702552.102 5  -2105881.709 5  23002741.668    23002741.242
  -2022546.700 4  -1576006.184 4  25218861.072    25218854.276
    537522.717 9    418849.706 9  20224690.822    20224690.837
  -1230038.230 9   -958471.002 9  20810211.796    20810211.064
  -1193981.789 4   -930374.286 4  24521619.142    24521615.940
   2863951.834 4   2231647.849 4  24177597.554    24177591.454
   3100851.110 4   2416247.949 4  24552827.979    24552826.247
 98 10 31  0  0 55.0000000  0 10G31G 3G13G27G10G 2G18G19G16G22
  -1854383.557 7  -1444972.126 6  21504782.504    21504781.840
    256165.073 6    199609.796 5  22209419.632    22209418.501
  -2705508.487 5  -2108185.383 5  23002179.044    23002178.794
  -2393185.341 5  -1864816.989 5  23344569.371    23344567.392
  -1195097.761 4   -931243.880 4  24521407.009    24521404.698
  -2025444.768 4  -1578264.409 4  25218311.176    25218300.617
    538417.857 9    419547.219 9  20224861.193    20224861.134
  -1231325.474 9   -959474.046 9  20809966.866    20809966.128
   2867236.973 4   2234207.689 4  24178221.607    24178217.025
   3104383.608 4   2419000.549 4  24553500.934    24553500.123
 98 10 31  0  0 56.0000000  0 10G31G 3G13G27G10G 2G18G19G16G22
  -1856257.008 7  -1446431.953 6  21504426.010    21504425.277
    256741.663 6    200059.086 5  22209529.179    22209528.289
  -2708464.502 5  -2110488.767 5  23001616.647    23001615.923
  -2395887.538 5  -1866922.588 5  23344055.079    23344053.299
  -1196213.043 4   -932112.928 4  24521194.559    24521192.586
  -2028342.601 4  -1580522.448 4  25217756.424    25217752.542
    539313.744 9    420245.312 9  20225031.606    20225031.583
  -1232612.354 9   -960476.809 9  20809722.022    20809721.279
   2870522.235 4   2236767.655 4  24178847.380    24178842.064
   3107916.246 4   2421753.254 4  24554173.567    24554170.362
 98 10 31  0  0 57.0000000  0 10G31G 3G13G27G10G 2G18G19G16G22
  -1858129.932 7  -1447891.373 6  21504069.542    21504068.899
    257318.854 6    200508.848 5  22209638.988    22209638.254
  -2711420.291 5  -2112791.983 5  23001054.067    23001053.828
  -2398589.707 5  -1869028.173 5  23343540.907    23343538.951
  -1197327.740 4   -932981.538 4  24520981.953    24520981.349
  -2031240.325 4  -1582780.426 4  25217206.186    25217198.883
    540210.229 9    420943.873 9  20225202.201    20225202.201
  -1233899.025 9   -961479.409 9  20809477.098    20809476.329
   2873807.452 4   2239327.555 4  24179472.513    24179467.556
   3111448.873 4   2424505.939 4  24554844.816    24554843.394
 98 10 31  0  0 58.0000000  0 10G31G 3G13G27G10G 2G18G19G16G22
  -1860002.184 7  -1449350.268 6  21503713.172    21503712.474
    257896.832 6    200959.219 5  22209749.325    22209747.957
  -2714375.717 5  -2115094.904 5  23000491.428    23000491.327
  -2401291.688 5  -1871133.605 5  23343026.800    23343024.759
  -1198441.754 4   -933849.579 4  24520770.547    24520767.711
  -2034137.786 4  -1585038.176 4  25216654.425    25216651.012
    541107.475 9    421643.027 9  20225372.936    20225372.907
  -1235185.334 9   -962481.726 9  20809232.325    20809231.624
   2877092.766 4   2241887.535 4  24180097.647    24180092.372
   3114981.672 4   2427258.765 4  24555516.937    24555516.854
 98 10 31  0  0 59.0000000  0 10G31G 3G13G27G10G 2G18G19G16G22
  -1861873.927 7  -1450808.766 6  21503357.052    21503356.583
    258475.398 6    201410.054 5  22209859.058    22209858.306
  -2717330.932 5  -2117397.666 4  22999928.799    22999928.810
  -2403993.660 5  -1873239.032 5  23342512.383    23342510.684
  -1199555.209 4   -934717.212 4  24520558.267    24520556.042
  -2037035.180 4  -1587295.886 4  25216103.824    25216097.508
    542005.308 9    422342.637 9  20225543.759    20225543.717
  -1236471.444 9   -963483.888 9  20808987.645    20808986.891
   2880378.040 4   2244447.491 4  24180723.111    24180717.797
   3118514.439 4   2430011.576 4  24556189.336    24556187.780
 98 10 31  0  1  0.0000000  0 10G31G 3G13G27G10G 2G18G19G16G22
  -1863745.324 7  -1452266.998 6  21503000.921    21503000.300
    259054.382 6    201861.211 5  22209969.251    22209968.241
  -2720286.120 5  -2119700.405 5  22999366.968    22999366.396
  -2406695.793 5  -1875344.598 5  23341998.126    23341996.674
  -1200668.309 4   -935584.556 4  24520346.179    24520343.914
  -2039932.678 4  -1589553.654 4  25215551.895    25215546.205
    542903.554 9    423042.568 9  20225714.653    20225714.669
  -1237757.531 9   -964486.032 9  20808742.899    20808742.135
   2883663.099 4   2247007.265 4  24181347.756    24181343.608
   3122046.990 4   2432764.221 4  24556861.442    24556861.141
 98 10 31  0  1  1.0000000  0 10G31G 3G13G27G10G 2G18G19G16G22
  -1865616.264 7  -1453724.868 6  21502645.014    21502644.125
    259633.925 6    202312.801 5  22210079.489    22210078.727
  -2723241.144 5  -2122003.026 4  22998804.668    22998804.040
  -2409397.955 5  -1877450.170 5  23341484.212    23341482.551
  -1201780.909 4   -936451.519 4  24520134.898    24520132.037
  -2042830.123 4  -1591811.413 4  25215000.827    25214994.274
    543802.356 9    423742.933 9  20225885.678    20225885.729
  -1239043.446 9   -965488.042 9  20808498.239    20808497.431
   2886948.067 4   2249566.969 4  24181974.426    24181967.742
   3125579.507 4   2435516.832 4  24557534.043    24557532.617
 98 10 31  0  1  2.0000000  0 10G31G 3G13G27G10G 2G18G19G16G22
  -1867486.796 7  -1455182.427 6  21502288.949    21502288.259
    260213.954 6    202764.773 5  22210189.993    22210189.059
  -2726196.078 5  -2124305.566 5  22998241.850    22998241.733
  -2412100.219 5  -1879555.826 5  23340969.643    23340968.454
  -1202893.112 4   -937318.158 4  24519923.465    24519920.032
  -2045727.607 4  -1594069.192 4  25214448.998    25214444.423
    544701.641 9    424443.676 9  20226056.894    20226056.885
  -1240329.261 9   -966489.973 9  20808253.534    20808252.765
   2890232.836 4   2252126.560 4  24182597.602    24182593.434
   3129111.892 4   2438269.355 4  24558205.908    24558204.116
 98 10 31  0  1  3.0000000  0 10G31G 3G13G27G10G 2G18G19G16G22
  -1869356.765 7  -1456639.540 6  21501933.135    21501932.164
    260794.625 6    203217.249 5  22210300.422    22210299.513
  -2729150.758 5  -2126607.911 5  22997680.011    22997679.595
  -2414802.415 5  -1881661.427 5  23340455.452    23340453.824
  -1204004.703 4   -938184.339 4  24519711.289    24519710.251
  -2048624.928 4  -1596326.854 4  25213898.050    25213892.807
    545601.567 9    425144.915 9  20226228.085    20226228.137
  -1241614.817 9   -967491.705 9  20808008.873    20808008.164
   2893517.628 4   2254686.131 4  24183224.194    24183217.837
   3132644.329 4   2441021.890 4  24558878.108    24558877.756
 98 10 31  0  1  4.0000000  0 10G31G 3G13G27G10G 2G18G19G16G22
  -1871226.208 7  -1458096.248 6  21501577.318    21501576.713
    261375.929 6    203670.214 5  22210411.122    22210410.198
  -2732105.221 5  -2128910.086 5  22997117.851    22997117.204
  -2417504.569 5  -1883767.002 5  23339941.661    23339939.806
  -1205115.761 4   -939050.088 4  24519500.198    24519497.708
  -2051522.169 4  -1598584.433 4  25213346.820    25213342.288
    546502.112 9    425846.640 9  20226399.509    20226399.575
  -1242900.145 9   -968493.258 9  20807764.333    20807763.623
   2896802.423 4   2257245.698 4  24183849.022    24183844.778
   3136176.759 4   2443774.440 4  24559550.434    24559549.316
 98 10 31  0  1  5.0000000  0 10G31G 3G13G27G10G 2G18G19G16G22
  -1873095.059 7  -1459552.492 6  21501221.900    21501221.106
    261957.900 6    204123.699 5  22210521.863    22210521.132
  -2735059.385 5  -2131212.030 5  22996555.654    22996555.335
  -2420206.649 5  -1885872.512 5  23339427.356    23339425.473
  -1206226.197 4   -939915.380 4  24519288.518    24519287.224
  -2054419.269 4  -1600841.902 4  25212794.024    25212791.268
    547403.329 9    426548.887 9  20226571.014    20226571.117
  -1244185.182 9   -969494.582 9  20807519.789    20807519.102
   2900087.219 4   2259805.286 4  24184474.022    24184469.115
   3139709.267 4   2446527.044 4  24560222.875    24560222.824
 98 10 31  0  1  6.0000000  0 10G31G 3G13G27G10G 2G18G19G16G22
  -1874963.361 7  -1461008.310 6  21500866.260    21500865.605
    262540.503 6    204577.675 5  22210632.750    22210631.825
  -2738013.314 5  -2133513.790 4  22995993.462    22995993.401
  -2422908.693 5  -1887978.000 5  23338913.437    23338911.097
  -1207336.109 4   -940780.224 4  24519077.583    24519076.210
  -2057316.228 4  -1603099.277 4  25212244.828    25212238.326
    548305.168 9    427251.619 9  20226742.678    20226742.780
  -1245469.975 9   -970495.717 9  20807275.328    20807274.465
   2903371.999 4   2262364.861 4  24185100.047    24185092.883
   3143241.787 4   2449279.647 4  24560895.109    24560893.347
 98 10 31  0  1  7.0000000  0 10G31G 3G13G27G10G 2G18G19G16G22
  -1876831.177 7  -1462463.750 6  21500510.777    21500510.146
    263123.685 6    205032.106 5  22210743.699    22210742.995
  -2740967.058 5  -2135815.403 5  22995431.230    22995431.408
  -2425610.763 5  -1890083.500 5  23338399.080    23338396.370
  -1208445.506 4   -941644.681 4  24518866.119    24518865.053
  -2060213.093 4  -1605356.586 4  25211693.464    25211686.853
    549207.587 9    427954.803 9  20226914.394    20226914.466
  -1246754.556 9   -971496.689 9  20807030.895    20807030.171
   2906656.715 4   2264924.377 4  24185723.972    24185717.523
   3146774.265 4   2452032.235 4  24561566.893    24561565.393
 98 10 31  0  1  8.0000000  0 10G31G 3G13G27G10G 2G18G19G16G22
  -1878698.550 7  -1463918.844 6  21500155.366    21500154.742
    263707.398 6    205486.944 5  22210854.773    22210854.057
  -2743920.668 5  -2138116.917 4  22994869.269    22994869.243
  -2428312.902 5  -1892189.060 5  23337884.514    23337883.334
  -1209554.433 4   -942508.780 4  24518655.076    24518652.118
  -2063109.987 4  -1607613.874 4  25211141.380    25211133.963
    550110.528 9    428658.393 9  20227086.306    20227086.373
  -1248039.009 9   -972497.558 9  20806786.509    20806785.792
   2909941.338 4   2267483.807 4  24186349.367    24186344.369
   3150306.641 4   2454784.752 4  24562239.198    24562238.399
 98 10 31  0  1  9.0000000  0 10G31G 3G13G27G10G 2G18G19G16G22
  -1880565.474 7  -1465373.590 6  21499800.094    21499799.658
    264291.636 6    205942.200 5  22210965.951    22210965.158
  -2746874.122 5  -2140418.308 5  22994307.650    22994307.199
  -2431015.119 5  -1894294.682 5  23337370.147    23337368.158
  -1210662.924 4   -943372.537 4  24518444.168    24518442.798
  -2066006.856 4  -1609871.172 4  25210589.710    25210583.309
    551013.995 9    429362.395 9  20227258.347    20227258.271
  -1249323.305 9   -973498.308 9  20806542.075    20806541.304
   2913225.816 4   2270043.142 4  24186973.268    24186969.708
   3153838.935 4   2457537.177 4  24562911.490    24562910.358
 98 10 31  0  1 10.0000000  0 10G31G 3G13G27G10G 2G18G19G16G22
  -1882431.598 7  -1466827.710 6  21499445.063    21499444.517
    264876.795 6    206398.169 5  22211077.314    22211076.537
  -2749827.074 5  -2142719.302 5  22993745.415    22993745.316
  -2433717.029 5  -1896400.060 5  23336856.352    23336854.438
  -1211770.574 4   -944235.642 4  24518234.111    24518231.309
  -2068903.317 4  -1612128.157 4  25210039.166    25210033.054
    551918.369 9    430067.103 9  20227430.407    20227430.442
  -1250607.092 9   -974498.658 9  20806297.822    20806297.005
   2916510.538 4   2272602.666 4  24187598.575    24187592.931
   3157371.530 4   2460289.853 4  24563584.375    24563582.639
 98 10 31  0  1 11.0000000  0 10G31G 3G13G27G10G 2G18G19G16G22
  -1884297.175 7  -1468281.401 6  21499089.995    21499089.365
    265462.584 6    206854.629 5  22211188.653    22211188.029
  -2752779.775 5  -2145020.104 4  22993183.346    22993183.287
  -2436418.894 5  -1898505.405 5  23336341.843    23336339.947
  -1212877.684 4   -945098.320 4  24518023.230    24518020.719
  -2071799.651 4  -1614385.048 4  25209488.064    25209481.901
    552823.374 9    430772.301 9  20227602.665    20227602.658
  -1251890.640 9   -975498.825 9  20806053.534    20806052.744
   2919795.235 4   2275162.192 4  24188225.003    24188219.125
   3160904.122 4   2463042.524 4  24564255.487    24564255.406
 98 10 31  0  1 12.0000000  0 10G31G 3G13G27G10G 2G18G19G16G22
  -1886162.169 7  -1469734.641 6  21498735.082    21498734.545
    266049.045 6    207311.612 5  22211300.390    22211299.789
  -2755732.197 5  -2147320.695 5  22992621.588    22992621.710
  -2439120.701 5  -1900610.707 5  23335827.816    23335825.764
  -1213984.186 4   -945960.533 4  24517812.196    24517810.130
  -2074695.834 4  -1616641.823 4  25208937.620    25208930.879
    553729.049 9    431478.022 9  20227775.037    20227774.972
  -1253173.904 9   -976498.769 9  20805809.362    20805808.546
   2923080.000 4   2277721.697 4  24188849.970    24188843.685
   3164436.782 4   2465795.245 4  24564927.498    24564926.363
 98 10 31  0  1 13.0000000  0 10G31G 3G13G27G10G 2G18G19G16G22
  -1888026.700 7  -1471187.521 6  21498380.230    21498379.738
    266636.088 6    207769.049 5  22211412.055    22211411.226
  -2758684.451 5  -2149621.159 4  22992059.686    22992059.899
  -2441822.531 5  -1902716.027 5  23335313.761    23335311.562
  -1215090.196 4   -946822.362 4  24517602.487    24517599.383
  -2077591.987 4  -1618898.546 4  25208385.514    25208382.469
    554635.283 9    432184.178 9  20227947.453    20227947.426
  -1254456.993 9   -977498.577 9  20805565.195    20805564.417
   2926364.620 4   2280281.155 4  24189473.990    24189469.443
   3167969.394 4   2468547.938 4  24565600.539    24565598.870
 98 10 31  0  1 14.0000000  0 10G31G 3G13G27G10G 2G18G19G16G22
  -1889890.661 7  -1472639.956 6  21498025.471    21498025.058
    267223.788 6    208226.998 5  22211523.867    22211523.165
  -2761636.452 5  -2151921.405 4  22991497.896    22991497.805
  -2444524.315 5  -1904821.308 5  23334799.524    23334797.387
  -1216195.634 4   -947683.733 4  24517391.628    24517389.367
  -2080487.995 4  -1621155.160 4  25207832.981    25207829.160
    555542.163 9    432890.838 9  20228120.029    20228120.030
  -1255739.831 9   -978498.190 9  20805321.018    20805320.337
   2929649.233 4   2282840.608 4  24190097.266    24190094.409
   3171502.004 4   2471300.619 4  24566273.264    24566271.640
 98 10 31  0  1 15.0000000  0 10G31G 3G13G27G10G 2G18G19G16G22
  -1891754.085 7  -1474091.974 6  21497670.919    21497670.447
    267812.111 6    208685.433 5  22211635.790    22211635.305
  -2764588.220 5  -2154221.474 4  22990936.443    22990936.088
  -2447226.086 5  -1906926.580 5  23334285.045    23334283.800
  -1217300.538 4   -948544.680 4  24517182.128    24517179.307
  -2083383.901 4  -1623411.712 4  25207283.857    25207278.468
    556449.658 9    433597.977 9  20228292.630    20228292.618
  -1257022.444 9   -979497.626 9  20805076.944    20805076.144
   2932933.819 4   2285400.010 4  24190725.512    24190719.668
   3175034.620 4   2474053.307 4  24566945.049    24566943.218
 98 10 31  0  1 16.0000000  0 10G31G 3G13G27G10G 2G18G19G16G22
  -1893616.849 7  -1475543.474 6  21497316.528    21497315.902
    268401.206 6    209144.469 5  22211747.816    22211747.282
  -2767539.616 5  -2156521.270 4  22990374.701    22990374.351
  -2449927.701 5  -1909031.730 5  23333771.022    23333769.153
  -1218404.735 4   -949405.101 4  24516971.777    24516969.429
  -2086279.580 4  -1625668.068 4  25206731.536    25206726.215
    557357.908 9    434305.705 9  20228465.521    20228465.460
  -1258304.684 9   -980496.773 9  20804832.995    20804832.176
   2936218.492 4   2287959.493 4  24191350.553    24191342.720
   3178567.398 4   2476806.125 4  24567617.370    24567616.044
 98 10 31  0  1 17.0000000  0 10G31G 3G13G27G10G 2G18G19G16G22
  -1895479.015 7  -1476994.510 6  21496962.086    21496961.787
    268990.986 6    209604.041 5  22211860.183    22211859.521
  -2770490.708 5  -2158820.818 4  22989813.162    22989812.857
  -2452629.242 5  -1911136.821 5  23333257.192    23333255.356
  -1219508.339 4   -950265.061 4  24516760.756    24516758.074
  -2089175.061 4  -1627924.299 4  25206181.999    25206174.939
    558266.834 9    435013.960 9  20228638.357    20228638.322
  -1259586.639 9   -981495.696 9  20804588.956    20804588.313
   2939503.183 4   2290519.010 4  24191974.975    24191969.338
   3182100.226 4   2479558.975 4  24568289.798    24568287.666
 98 10 31  0  1 18.0000000  0 10G31G 3G13G27G10G 2G18G19G16G22
  -1897340.688 7  -1478445.161 6  21496607.874    21496607.542
    269581.353 6    210064.066 5  22211972.478    22211971.702
  -2773441.611 5  -2161120.225 5  22989251.780    22989251.507
  -2455330.809 5  -1913241.937 5  23332742.762    23332741.475
  -1220611.460 4   -951124.621 4  24516552.113    24516548.689
  -2092070.471 4  -1630180.470 4  25205631.301    25205623.829
    559176.330 9    435722.657 9  20228811.408    20228811.473
  -1260868.420 9   -982494.486 9  20804345.040    20804344.285
   2942787.828 4   2293078.459 4  24192600.117    24192593.250
   3185633.008 4   2482311.800 4  24568961.131    24568959.889
 98 10 31  0  1 19.0000000  0 10G31G 3G13G27G 2G10G19G18G16G22
  -1899201.713 7  -1479895.310 6  21496253.742    21496253.216
    270172.474 6    210524.684 5  22212085.018    22212084.245
  -2776392.164 5  -2163419.353 5  22988690.210    22988690.202
  -2458032.245 5  -1915346.948 5  23332229.043    23332226.804
  -2094965.686 4  -1632436.435 4  25205079.033    25205074.448
  -1221713.909 4   -951983.672 4  24516341.676    24516339.724
  -1262149.867 9   -983493.014 9  20804101.214    20804100.495
    560086.566 9    436431.932 9  20228984.650    20228984.563
   2946072.561 4   2295638.000 4  24193226.179    24193220.875
   3189165.894 4   2485064.694 4  24569633.337    24569632.981
 98 10 31  0  1 20.0000000  0 10G31G 3G13G27G10G 2G18G19G16G22
  -1901062.134 7  -1481344.989 6  21495899.614    21495899.292
    270764.293 6    210985.840 5  22212197.595    22212197.049
  -2779342.395 5  -2165718.225 5  22988128.776    22988128.722
  -2460733.600 5  -1917451.893 5  23331715.015    23331712.661
  -1222815.764 4   -952842.274 4  24516131.849    24516129.454
  -2097860.685 4  -1634692.304 4  25204529.279    25204521.368
    560997.490 9    437141.744 9  20229158.034    20229158.071
  -1263431.029 9   -984491.320 9  20803857.376    20803856.595
   2949357.333 4   2298197.565 4  24193849.432    24193844.347
   3192698.858 4   2487817.653 4  24570306.225    24570304.867
 98 10 31  0  1 21.0000000  0 10G31G 3G13G27G10G 2G18G19G16G22
  -1902921.875 7  -1482794.135 6  21495545.793    21495545.286
    271356.874 6    211447.594 5  22212310.371    22212309.801
  -2782292.231 5  -2168016.798 5  22987567.305    22987567.549
  -2463434.787 5  -1919556.707 5  23331200.847    23331199.530
  -1223916.942 4   -953700.313 4  24515922.914    24515919.231
  -2100755.442 4  -1636947.942 4  25203978.862    25203973.662
    561909.186 9    437852.156 9  20229331.483    20229331.534
  -1264711.825 9   -985489.341 9  20803613.634    20803612.863
   2952642.247 4   2300757.207 4  24194474.008    24194468.951
   3196231.953 4   2490570.720 4  24570978.592    24570978.001
 98 10 31  0  1 22.0000000  0 10G31G27G13G10G 2G18G19G 3G16G22
  -1904781.001 7  -1484242.802 7  21495191.981    21495191.513
  -2466135.853 5  -1921661.431 5  23330686.913    23330685.210
  -2785241.729 5  -2170315.098 5  22987006.152    22987006.003
  -1225017.484 4   -954557.881 4  24515713.311    24515710.086
  -2103649.931 4  -1639203.398 4  25203427.675    25203422.170
    562821.603 9    438563.130 9  20229505.148    20229505.177
  -1265992.317 9   -986487.126 9  20803369.868    20803369.130
    271950.188 6    211909.915 5  22212423.303    22212422.807
   2955927.192 4   2303316.912 4  24195099.019    24195095.069
   3199765.143 4   2493323.846 4  24571651.159    24571649.206
 98 10 31  0  1 23.0000000  0 10G31G 3G13G27G10G 2G18G19G16G22
  -1906639.611 7  -1485691.066 6  21494838.332    21494837.806
    272544.099 6    212372.707 5  22212536.401    22212535.630
  -2788190.991 5  -2172613.230 5  22986444.936    22986444.963
  -2468836.913 5  -1923766.151 5  23330172.819    23330170.918
  -1226117.492 4   -955415.031 4  24515503.873    24515501.204
  -2106544.382 4  -1641458.812 4  25202875.314    25202871.694
    563734.614 9    439274.568 9  20229678.830    20229678.813
  -1267272.624 9   -987484.764 9  20803126.264    20803125.492
   2959212.077 4   2305876.583 4  24195726.826    24195720.272
   3203298.293 4   2496076.945 4  24572323.308    24572321.776
 98 10 31  0  1 24.0000000  0 10G31G 3G13G27G10G 2G18G19G16G22
  -1908497.742 7  -1487138.960 6  21494484.774    21494484.245
    273138.578 6    212835.939 5  22212649.603    22212648.916
  -2791140.079 5  -2174911.216 5  22985883.769    22985883.753
  -2471538.022 5  -1925870.907 5  23329659.073    23329657.154
  -1227217.050 4   -956271.822 4  24515295.081    24515290.890
  -2109438.819 4  -1643714.180 4  25202325.552    25202321.098
    564648.185 9    439986.442 9  20229852.789    20229852.802
  -1268552.782 9   -988482.289 9  20802882.647    20802881.902
   2962496.870 4   2308436.160 4  24196350.829    24196344.158
   3206831.334 4   2498829.975 4  24572995.011    24572994.302
 98 10 31  0  1 25.0000000  0 10G31G 3G13G27G10G 2G18G19G16G22
  -1910355.171 7  -1488586.304 6  21494131.310    21494130.792
    273733.871 6    213299.803 5  22212762.889    22212761.971
  -2794088.735 5  -2177208.866 5  22985322.457    22985322.642
  -2474238.919 5  -1927975.498 5  23329144.876    23329142.863
  -1228315.868 4   -957128.043 4  24515086.056    24515082.469
  -2112332.884 4  -1645969.327 4  25201774.508    25201769.803
    565562.552 9    440698.937 9  20230026.744    20230026.754
  -1269832.576 9   -989479.529 9  20802639.035    20802638.284
   2965781.836 4   2310995.865 4  24196974.438    24196970.082
   3210364.567 4   2501583.156 4  24573667.791    24573666.085
 98 10 31  0  1 26.0000000  0 10G31G 3G13G27G10G 2G18G19G16G22
  -1912212.226 7  -1490033.358 6  21493777.949    21493777.379
    274329.633 6    213764.035 5  22212876.136    22212875.185
  -2797037.316 5  -2179506.460 5  22984761.398    22984761.279
  -2476939.958 5  -1930080.200 5  23328630.885    23328629.547
  -1229414.333 4   -957983.977 4  24514877.489    24514874.230
  -2115227.035 4  -1648224.494 4  25201223.256    25201216.112
    566477.368 9    441411.779 9  20230200.845    20230200.804
  -1271112.323 9   -990476.733 9  20802395.571    20802394.786
   2969066.621 4   2313555.409 4  24197601.018    24197595.575
   3213897.628 4   2504336.171 4  24574340.288    24574338.468
 98 10 31  0  1 27.0000000  0 10G31G 3G13G27G10G 2G18G19G16G22
  -1914068.640 7  -1491479.910 6  21493424.639    21493424.289
    274926.138 6    214228.844 5  22212989.675    22212988.851
  -2799985.527 5  -2181803.767 4  22984200.490    22984200.443
  -2479640.868 5  -1932184.800 5  23328117.168    23328115.107
  -1230512.121 4   -958839.405 4  24514668.999    24514664.285
  -2118120.944 4  -1650479.492 4  25200672.914    25200669.091
    567392.900 9    442125.182 9  20230375.007    20230375.048
  -1272391.748 9   -991473.686 9  20802152.057    20802151.333
   2972351.479 4   2316115.026 4  24198225.724    24198220.502
   3217430.766 4   2507089.268 4  24575011.943    24575012.255
 98 10 31  0  1 28.0000000  0 10G31G 3G13G27G10G 2G18G19G16G22
  -1915924.330 7  -1492925.902 6  21493071.380    21493071.046
    275523.498 6    214694.322 5  22213103.366    22213102.664
  -2802933.275 5  -2184100.709 5  22983639.568    22983639.187
  -2482341.527 5  -1934289.214 5  23327603.115    23327601.451
  -1231609.210 4   -959694.268 4  24514458.818    24514455.683
  -2121014.518 4  -1652734.216 4  25200122.774    25200117.576
    568309.257 9    442839.225 9  20230549.434    20230549.408
  -1273670.761 9   -992470.317 9  20801908.665    20801907.927
   2975636.458 4   2318674.774 4  24198851.157    24198844.890
   3220964.112 4   2509842.539 4  24575684.906    24575683.877
 98 10 31  0  1 29.0000000  0 10G31G 3G13G27G10G 2G18G19G16G22
  -1917779.416 7  -1494371.422 6  21492718.473    21492718.123
    276121.562 6    215160.348 5  22213217.275    22213216.564
  -2805880.702 5  -2186397.406 5  22983079.060    22983078.556
  -2485042.100 5  -1936393.545 5  23327089.033    23327087.481
  -1232705.654 4   -960548.634 4  24514251.097    24514246.377
  -2123907.946 4  -1654988.816 4  25199570.980    25199567.483
    569226.300 9    443553.804 9  20230723.894    20230723.914
  -1274949.493 9   -993466.732 9  20801665.307    20801664.648
   2978921.540 4   2321234.573 4  24199475.723    24199471.191
   3224497.534 4   2512595.848 4  24576357.329    24576356.688
 98 10 31  0  1 30.0000000  0 10G31G 3G13G27G10G 2G18G19G16G22
  -1919634.139 7  -1495816.660 6  21492365.429    21492365.243
    276720.103 6    215626.742 5  22213331.103    22213330.380
  -2808828.050 5  -2188694.034 5  22982517.646    22982517.596
  -2487742.812 5  -1938497.992 5  23326574.806    23326573.163
  -1233801.760 4   -961402.741 4  24514041.919    24514037.521
  -2126801.366 4  -1657243.427 4  25199020.979    25199015.477
    570143.787 9    444268.730 9  20230898.444    20230898.380
  -1276228.175 9   -994463.104 9  20801421.979    20801421.295
   2982206.385 4   2323794.199 4  24200100.348    24200095.317
   3228030.753 4   2515349.006 4  24577030.160    24577028.096
 98 10 31  0  1 31.0000000  0 10G31G 3G27G13G10G 2G18G19G16G22
  -1921488.335 7  -1497261.484 6  21492012.692    21492012.281
    277319.300 6    216093.648 5  22213445.100    22213444.514
  -2490443.477 5  -1940602.411 5  23326061.166    23326059.738
  -2811775.138 5  -2190990.465 5  22981957.041    22981957.216
  -1234897.310 4   -962256.421 4  24513834.248    24513830.519
  -2129694.654 4  -1659497.943 4  25198471.228    25198464.458
    571061.893 9    444984.137 9  20231073.147    20231073.200
  -1277506.641 9   -995459.311 9  20801178.626    20801177.855
   2985491.235 4   2326353.804 4  24200725.834    24200720.726
   3231563.971 4   2518102.172 4  24577702.132    24577701.285
 98 10 31  0  1 32.0000000  0 10G31G 3G13G27G10G 2G18G19G16G22
  -1923341.938 7  -1498705.849 6  21491659.858    21491659.756
    277919.174 6    216561.085 5  22213559.264    22213558.429
  -2814721.929 5  -2193286.656 4  22981396.181    22981395.749
  -2493144.076 5  -1942706.761 5  23325547.262    23325545.701
  -1235992.295 4   -963109.645 4  24513624.102    24513621.257
  -2132587.785 4  -1661752.342 4  25197922.312    25197914.738
    571980.658 9    445700.059 9  20231247.971    20231247.966
  -1278784.850 9   -996455.316 9  20800935.501    20800934.766
   2988776.091 4   2328913.466 4  24201349.795    24201345.793
   3235097.238 4   2520855.360 4  24578375.216    24578373.654
 98 10 31  0  1 33.0000000  0 10G31G 3G13G27G10G 2G18G19G16G22
  -1925195.144 7  -1500149.903 6  21491307.254    21491306.952
    278519.547 6    217028.911 5  22213673.536    22213672.707
  -2817668.591 5  -2195582.759 4  22980835.688    22980834.901
  -2495844.781 5  -1944811.206 5  23325033.427    23325031.604
  -1237086.876 4   -963962.565 4  24513416.882    24513413.100
  -2135480.951 4  -1664006.736 4  25197368.890    25197364.940
    572899.894 9    446416.347 9  20231422.906    20231422.912
  -1280062.980 9   -997451.259 9  20800692.245    20800691.426
   2992060.798 4   2331472.966 4  24201975.737    24201970.382
   3238630.349 4   2523608.426 4  24579046.964    24579044.800
 98 10 31  0  1 34.0000000  0 10G31G 3G13G27G10G 2G18G19G16G22
  -1927047.579 7  -1501593.355 7  21490954.900    21490954.543
    279120.807 6    217497.428 5  22213787.893    22213787.363
  -2820614.744 5  -2197878.460 4  22980274.901    22980274.097
  -2498545.196 5  -1946915.424 5  23324519.404    23324517.585
  -1238180.672 4   -964814.882 4  24513208.489    24513205.480
  -2138373.725 4  -1666260.834 4  25196819.790    25196813.160
    573819.990 9    447133.305 9  20231597.964    20231597.960
  -1281340.635 9   -998446.833 9  20800449.092    20800448.312
   2995345.714 4   2334032.630 4  24202601.233    24202594.785
   3242163.682 4   2526361.689 4  24579719.578    24579718.681
 98 10 31  0  1 35.0000000  0 10G31G 3G13G27G10G 2G18G19G16G22
  -1928899.517 7  -1503036.422 6  21490602.324    21490602.106
    279722.659 6    217966.403 5  22213902.407    22213901.653
  -2823560.693 5  -2200174.002 5  22979714.317    22979713.930
  -2501245.653 5  -1949019.673 5  23324005.749    23324003.558
  -1239273.990 4   -965666.799 4  24513000.564    24512997.736
  -2141266.421 4  -1668514.887 4  25196269.537    25196264.446
    574740.658 9    447850.708 9  20231773.164    20231773.127
  -1282618.120 9   -999442.275 9  20800205.972    20800205.164
   2998630.556 4   2336592.225 4  24203225.599    24203220.944
   3245696.956 4   2529114.882 4  24580391.770    24580390.764
 98 10 31  0  1 36.0000000  0 10G31G 3G13G27G10G 2G18G19G16G22
  -1930750.927 7  -1504479.078 6  21490250.056    21490249.792
    280325.135 6    218435.868 5  22214016.966    22214016.132
  -2826506.396 5  -2202469.349 5  22979153.475    22979153.651
  -2503946.101 5  -1951123.909 5  23323491.954    23323490.225
  -1240366.753 4   -966518.328 4  24512791.973    24512790.105
  -2144159.009 4  -1670768.849 4  25195718.625    25195712.764
    575661.929 9    448568.582 9  20231948.520    20231948.493
  -1283895.386 9  -1000437.545 9  20799962.941    20799962.116
   3001915.351 4   2339151.819 4  24203850.363    24203846.951
   3249230.177 4   2531868.048 4  24581063.063    24581062.711
 98 10 31  0  1 37.0000000  0 10G31G 3G13G27G10G 2G18G19G16G22
  -1932601.718 7  -1505921.250 7  21489897.776    21489897.521
    280928.350 6    218905.905 5  22214131.769    22214130.951
  -2829451.753 5  -2204764.432 5  22978593.176    22978593.043
  -2506646.443 5  -1953228.073 5  23322978.120    23322976.189
  -1241458.921 4   -967369.344 4  24512585.229    24512581.769
  -2147051.388 4  -1673022.649 4  25195167.236    25195161.125
    576583.913 9    449287.011 9  20232123.942    20232123.944
  -1285172.341 9  -1001432.573 9  20799719.857    20799719.172
   3005200.199 4   2341711.448 4  24204475.808    24204471.360
   3252763.488 4   2534621.275 4  24581736.075    24581734.325
 98 10 31  0  1 38.0000000  0 10G31G 3G13G27G10G 2G18G19G16G22
  -1934451.926 7  -1507362.969 7  21489545.761    21489545.618
    281532.237 6    219376.468 5  22214246.538    22214246.091
  -2832396.829 5  -2207059.292 5  22978032.945    22978032.897
  -2509346.734 5  -1955332.182 5  23322464.219    23322461.749
  -1242550.497 4   -968219.936 4  24512376.813    24512374.019
  -2149943.604 4  -1675276.313 4  25194618.535    25194611.277
    577506.562 9    450005.957 9  20232299.463    20232299.546
  -1286449.033 9  -1002427.398 9  20799477.045    20799476.253
   3008485.088 4   2344271.097 4  24205101.558    24205098.162
   3256296.814 4   2537374.513 4  24582408.910    24582407.213
 98 10 31  0  1 39.0000000  0 10G31G 3G13G27G10G 2G18G19G16G22
  -1936301.576 7  -1508804.254 6  21489193.634    21489193.577
    282136.774 6    219847.536 5  22214361.744    22214360.809
  -2835341.628 5  -2209353.942 4  22977472.436    22977472.367
  -2512046.995 5  -1957436.282 5  23321950.191    23321948.091
  -1243641.510 4   -969070.074 4  24512169.667    24512165.876
  -2152835.687 4  -1677529.868 4  25194068.784    25194060.104
    578429.840 9    450725.397 9  20232475.206    20232475.236
  -1287725.505 9  -1003422.049 9  20799234.034    20799233.260
   3011769.965 4   2346830.737 4  24205724.945    24205721.606
   3259830.111 4   2540127.742 4  24583080.624    24583079.783
 98 10 31  0  1 40.0000000  0 10G31G 3G13G27G10G 2G18G19G16G22
  -1938150.667 7  -1510245.102 6  21488841.833    21488841.703
    282741.984 6    220319.130 5  22214476.718    22214475.895
  -2838286.157 5  -2211648.374 5  22976911.990    22976911.815
  -2514747.213 5  -1959540.346 5  23321436.568    23321434.426
  -1244731.979 4   -969919.768 4  24511961.658    24511958.883
  -2155727.592 4  -1679783.313 4  25193517.846    25193510.850
    579353.765 9    451445.337 9  20232651.006    20232651.027
  -1289001.744 9  -1004416.520 9  20798991.218    20798990.488
   3015054.851 4   2349390.380 4  24206351.644    24206346.506
   3263363.428 4   2542880.967 4  24583753.564    24583751.348
 98 10 31  0  1 41.0000000  0 10G31G 3G13G27G10G 2G18G19G16G22
  -1939999.178 7  -1511685.498 6  21488490.023    21488489.841
    283347.875 6    220791.252 5  22214592.131    22214591.442
  -2841230.397 5  -2213942.584 4  22976352.038    22976351.763
  -2517447.385 5  -1961644.372 5  23320922.829    23320920.595
  -1245821.840 4   -970769.022 4  24511754.223    24511752.514
  -2158619.332 4  -1682036.607 4  25192966.962    25192960.420
    580278.329 9    452165.779 9  20232827.018    20232826.988
  -1290277.719 9  -1005410.783 9  20798748.358    20798747.667
   3018339.704 4   2351950.031 4  24206977.592    24206970.832
   3266896.747 4   2545634.211 4  24584425.909    24584424.206
 98 10 31  0  1 42.0000000  0 10G31G 3G13G27G10G 2G18G19G16G22
  -1941847.081 7  -1513125.420 7  21488138.493    21488138.277
    283954.469 6    221263.924 5  22214707.732    22214706.619
  -2844174.331 5  -2216236.557 4  22975791.898    22975791.626
  -2520147.479 5  -1963748.338 5  23320409.107    23320406.792
  -1246911.113 4   -971617.788 4  24511547.298    24511545.133
  -2161510.915 4  -1684289.787 4  25192414.938    25192411.395
    581203.571 9    452886.745 9  20233003.037    20233003.093
  -1291553.414 9  -1006404.830 9  20798505.657    20798504.860
   3021624.672 4   2354509.728 4  24207601.486    24207597.024
   3270430.110 4   2548387.478 4  24585098.963    24585097.853
 98 10 31  0  1 43.0000000  0 10G31G 3G13G27G10G 2G18G19G16G22
  -1943694.376 7  -1514564.866 6  21487786.965    21487786.747
    284561.782 6    221737.157 5  22214823.055    22214822.388
  -2847117.961 5  -2218530.291 5  22975231.333    22975231.762
  -2522847.485 5  -1965852.233 5  23319895.131    23319893.312
  -1247999.771 4   -972466.090 4  24511340.906    24511337.664
  -2164402.301 4  -1686542.793 4  25191868.602    25191861.389
    582129.480 9    453608.234 9  20233179.261    20233179.194
  -1292828.858 9  -1007398.680 9  20798263.007    20798262.176
   3024909.650 4   2357069.469 4  24208226.254    24208222.704
   3273963.500 4   2551140.778 4  24585770.260    24585768.714
 98 10 31  0  1 44.0000000  0 10G31G 3G27G13G 2G10G19G18G16G22
  -1945541.180 7  -1516003.937 7  21487435.491    21487435.326
    285169.665 6    222210.833 5  22214938.870    22214938.073
  -2525547.534 5  -1967956.162 5  23319380.520    23319379.297
  -2850061.403 5  -2220823.879 5  22974671.578    22974671.193
  -2167293.603 4  -1688795.797 4  25191315.090    25191312.393
  -1249087.926 4   -973314.019 4  24511133.340    24511130.962
  -1294104.155 9  -1008392.417 9  20798020.288    20798019.480
    583055.927 9    454330.140 9  20233355.552    20233355.521
   3028194.583 4   2359629.134 4  24208851.942    24208845.586
   3277496.809 4   2553893.997 4  24586442.966    24586442.047
 98 10 31  0  1 45.0000000  0 10G31G 3G13G27G10G 2G18G19G16G22
  -1947387.243 7  -1517442.424 6  21487084.365    21487084.111
    285778.390 6    222685.165 5  22215054.681    22215054.035
  -2853004.403 5  -2223117.127 4  22974111.493    22974111.344
  -2528247.356 5  -1970059.921 5  23318867.705    23318865.192
  -1250175.351 4   -974161.345 4  24510926.274    24510923.204
  -2170184.626 4  -1691048.515 4  25190764.904    25190761.565
    583983.169 9    455052.667 9  20233532.011    20233531.997
  -1295379.041 9  -1009385.832 9  20797777.619    20797776.910
   3031479.636 4   2362188.935 4  24209477.642    24209472.128
   3281030.272 4   2556647.350 4  24587114.851    24587113.931
 98 10 31  0  1 46.0000000  0 10G31G 3G13G27G10G 2G18G19G16G22
  -1949232.889 7  -1518880.584 6  21486733.000    21486732.846
    286387.633 6    223159.904 5  22215170.653    22215169.736
  -2855947.299 5  -2225410.286 4  22973551.185    22973551.537
  -2530947.295 5  -1972163.769 5  23318353.730    23318351.901
  -1251262.348 4   -975008.364 4  24510718.768    24510716.797
  -2173075.681 4  -1693301.240 4  25190214.565    25190212.375
    584910.878 9    455775.556 9  20233708.500    20233708.506
  -1296653.859 9  -1010379.196 9  20797535.118    20797534.255
   3034764.576 4   2364748.608 4  24210101.243    24210095.246
   3284563.576 4   2559400.573 4  24587788.121    24587786.460
 98 10 31  0  1 47.0000000  0 10G31G 3G13G27G10G 2G18G19G16G22
  -1951077.984 7  -1520318.322 6  21486381.906    21486381.684
    286997.523 6    223635.142 5  22215286.650    22215286.059
  -2858889.944 5  -2227703.258 5  22972991.624    22972991.714
  -2533647.211 5  -1974267.591 5  23317839.901    23317837.011
  -1252348.816 4   -975854.957 4  24510512.514    24510509.337
  -2175966.539 4  -1695553.916 4  25189665.728    25189659.573
    585839.186 9    456498.914 9  20233885.199    20233885.195
  -1297928.477 9  -1011372.405 9  20797292.574    20797291.796
   3038049.478 4   2367308.274 4  24210727.139    24210723.724
   3288096.836 4   2562153.768 4  24588459.908    24588458.870
 98 10 31  0  1 48.0000000  0 10G31G 3G13G27G10G 2G18G19G16G22
  -1952922.571 7  -1521755.659 7  21486031.003    21486030.794
    287608.010 6    224110.844 5  22215402.672    22215401.906
  -2861832.388 5  -2229996.065 5  22972431.844    22972431.364
  -2536347.142 5  -1976371.432 5  23317326.199    23317323.631
  -1253434.764 4   -976701.132 4  24510306.067    24510302.183
  -2178857.385 4  -1697806.509 4  25189115.237    25189111.747
    586768.054 9    457222.707 9  20234061.958    20234061.888
  -1299202.921 9  -1012365.475 9  20797050.013    20797049.263
   3041334.310 4   2369867.903 4  24211351.236    24211347.551
   3291630.006 4   2564906.889 4  24589131.602    24589131.544
 98 10 31  0  1 49.0000000  0 10G31G 3G13G27G10G 2G18G19G16G22
  -1954766.485 7  -1523192.474 7  21485679.957    21485679.848
    288219.279 6    224587.161 5  22215519.021    22215518.460
  -2864774.462 5  -2232288.591 4  22971871.862    22971871.791
  -2539046.927 5  -1978475.155 5  23316812.246    23316810.440
  -1254520.014 4   -977546.794 4  24510098.526    24510095.513
  -2181747.967 4  -1700058.880 4  25188566.549    25188560.331
    587697.647 9    457947.066 9  20234238.796    20234238.844
  -1300477.061 9  -1013358.309 9  20796807.563    20796806.707
   3044619.280 4   2372427.604 4  24211976.499    24211972.999
   3295163.299 4   2567660.103 4  24589805.008    24589802.821
 98 10 31  0  1 50.0000000  0 10G31G 3G13G27G10G 2G18G19G16G22
  -1956609.783 7  -1524628.808 7  21485329.158    21485328.968
    288831.248 6    225064.020 5  22215635.509    22215634.802
  -2867716.223 5  -2234580.866 4  22971312.119    22971311.688
  -2541746.625 5  -1980578.812 5  23316299.041    23316296.184
  -1255604.656 4   -978391.971 4  24509892.429    24509888.803
  -2184638.398 4  -1702311.144 4  25188014.339    25188010.786
    588627.908 9    458671.945 9  20234415.885    20234415.763
  -1301750.933 9  -1014350.935 9  20796565.193    20796564.344
   3047904.290 4   2374987.352 4  24212602.388    24212598.465
   3298696.605 4   2570413.343 4  24590476.866    24590475.347
 98 10 31  0  1 51.0000000  0 10G31G 3G13G27G10G 2G18G19G16G22
  -1958452.439 7  -1526064.641 6  21484978.536    21484978.530
    289443.936 6    225541.437 5  22215752.193    22215751.494
  -2870657.649 5  -2236872.884 5  22970752.543    22970751.846
  -2544446.218 5  -1982682.383 5  23315785.168    23315782.641
  -1256688.679 4   -979236.646 4  24509685.894    24509683.025
  -2187528.611 4  -1704563.257 4  25187464.587    25187460.669
    589558.860 9    459397.363 9  20234593.003    20234593.015
  -1303024.512 9  -1015343.333 9  20796322.824    20796321.869
   3051189.358 4   2377547.135 4  24213229.031    24213224.518
   3302229.969 4   2573166.614 4  24591150.400    24591148.207
 98 10 31  0  1 52.0000000  0 10G31G 3G13G27G10G 2G18G19G16G22
  -1960294.563 7  -1527500.059 7  21484628.014    21484627.898
    290057.259 6    226019.357 5  22215868.660    22215868.008
  -2873598.849 5  -2239164.723 4  22970192.661    22970192.281
  -2547145.807 5  -1984785.955 5  23315271.428    23315268.834
  -1257772.119 4   -980080.899 4  24509480.131    24509478.337
  -2190418.693 4  -1706815.275 4  25186915.383    25186910.691
    590490.404 9    460123.240 9  20234770.277    20234770.152
  -1304297.919 9  -1016335.597 9  20796080.515    20796079.624
   3054474.409 4   2380106.922 4  24213851.438    24213847.240
   3305763.287 4   2575919.845 4  24591822.583    24591821.815
 98 10 31  0  1 53.0000000  0 10G31G 3G13G27G10G 2G18G19G16G22
  -1962136.212 7  -1528935.111 7  21484277.661    21484277.459
    290671.132 6    226497.697 5  22215985.696    22215984.966
  -2876539.878 5  -2241456.434 5  22969633.549    22969632.445
  -2549845.453 5  -1986889.580 5  23314757.413    23314755.623
  -1258855.111 4   -980924.779 4  24509273.355    24509270.817
  -2193308.759 4  -1709067.270 4  25186365.843    25186357.036
    591422.467 9    460849.524 9  20234947.627    20234947.602
  -1305571.201 9  -1017327.763 9  20795838.180    20795837.354
   3057759.358 4   2382666.630 4  24214477.572    24214470.983
   3309296.484 4   2578672.979 4  24592494.650    24592492.939
 98 10 31  0  1 54.0000000  0 10G31G 3G13G27G10G 2G18G19G16G22
  -1963977.348 7  -1530369.757 7  21483927.242    21483927.123
    291285.598 6    226976.502 5  22216102.418    22216101.973
  -2879480.702 5  -2243747.990 5  22969073.477    22969073.405
  -2552545.139 5  -1988993.222 5  23314243.721    23314241.142
  -1259937.537 4   -981768.239 4  24509068.123    24509066.461
  -2196198.688 4  -1711319.192 4  25185815.755    25185808.933
    592355.097 9    461576.249 9  20235125.131    20235125.036
  -1306844.309 9  -1018319.794 9  20795595.830    20795595.136
   3061044.274 4   2385226.290 4  24215102.500    24215098.323
   3312829.607 4   2581426.077 4  24593166.529    24593166.168
 98 10 31  0  1 55.0000000  0 10G31G 3G13G27G10G 2G18G19G16G22
  -1965817.837 7  -1531803.903 7  21483577.090    21483576.791
    291900.801 6    227455.884 5  22216219.595    22216219.017
  -2882421.195 5  -2246039.278 5  22968514.107    22968513.546
  -2555244.715 5  -1991096.784 5  23313729.837    23313727.777
  -1261019.328 4   -982611.183 4  24508862.742    24508860.582
  -2199088.474 4  -1713570.919 4  25185264.705    25185261.492
    593288.434 9    462303.525 9  20235302.714    20235302.643
  -1308117.112 9  -1019311.586 9  20795353.717    20795352.772
   3064329.245 4   2387786.017 4  24215727.474    24215723.983
   3316362.797 4   2584179.200 4  24593839.310    24593838.625
 98 10 31  0  1 56.0000000  0 10G31G 3G13G27G10G 2G18G19G16G22
  -1967657.710 7  -1533237.568 7  21483226.907    21483226.767
    292516.690 6    227935.800 5  22216336.766    22216336.228
  -2885361.372 5  -2248330.320 4  22967954.275    22967953.579
  -2557944.216 5  -1993200.284 5  23313216.666    23313213.726
  -1262100.510 4   -983453.660 4  24508657.643    24508655.230
  -2201978.016 4  -1715822.536 4  25184714.737    25184709.644
    594222.444 9    463031.324 9  20235480.451    20235480.479
  -1309389.639 9  -1020303.165 9  20795111.654    20795110.650
   3067614.292 4   2390345.786 4  24216352.471    24216349.143
   3319895.995 4   2586932.350 4  24594512.174    24594510.687
 98 10 31  0  1 57.0000000  0 10G31G 3G13G27G10G 2G18G19G16G22
  -1969497.134 7  -1534670.884 7  21482876.800    21482876.671
    293133.103 6    228416.123 5  22216454.158    22216453.650
  -2888301.411 5  -2250621.258 5  22967395.042    22967394.303
  -2560643.806 5  -1995303.860 5  23312702.664    23312700.404
  -1263181.230 4   -984295.773 4  24508451.153    24508447.120
  -2204867.574 4  -1718074.123 4  25184167.394    25184159.280
    595156.945 9    463759.507 9  20235658.313    20235658.248
  -1310662.063 9  -1021294.663 9  20794869.480    20794868.448
   3070899.212 4   2392905.472 4  24216978.885    24216971.314
   3323429.050 4   2589685.363 4  24595183.773    24595182.102
 98 10 31  0  1 58.0000000  0 10G31G 3G13G27G10G 2G18G19G16G22
  -1971336.086 7  -1536103.830 7  21482526.999    21482526.707
    293750.071 6    228896.880 5  22216571.421    22216570.756
  -2891241.261 5  -2252912.046 5  22966835.884    22966835.626
  -2563343.461 5  -1997407.487 5  23312188.797    23312186.790
  -1264261.476 4   -985137.522 4  24508245.970    24508243.298
  -2207757.051 4  -1720325.685 4  25183616.787    25183611.605
    596091.969 9    464488.098 9  20235836.233    20235836.178
  -1311934.359 9  -1022286.059 9  20794627.363    20794626.425
   3074184.039 4   2395465.058 4  24217603.708    24217598.610
   3326961.969 4   2592438.305 4  24595856.792    24595855.326
 98 10 31  0  1 59.0000000  0 10G31G 3G13G27G10G 2G18G19G16G22
  -1973174.357 7  -1537536.249 7  21482177.107    21482177.118
    294367.796 6    229378.223 5  22216689.075    22216688.498
  -2894180.731 5  -2255202.537 5  22966276.098    22966275.301
  -2566042.974 5  -1999510.994 5  23311675.721    23311673.039
  -1265341.021 4   -985978.728 4  24508040.654    24508037.994
  -2210646.357 4  -1722577.062 4  25183065.638    25183061.710
    597027.722 9    465217.255 9  20236014.420    20236014.254
  -1313206.327 9  -1023277.202 9  20794385.344    20794384.411
   3077468.981 4   2398024.752 4  24218228.196    24218221.728
   3330494.973 4   2595191.295 4  24596528.033    24596528.263
 98 10 31  0  2  0.0000000  0 10G31G 3G13G27G10G 2G18G19G16G22
  -1975011.772 7  -1538967.997 7  21481827.454    21481827.231
    294986.444 6    229860.288 5  22216806.931    22216806.246
  -2897119.650 5  -2257492.603 4  22965717.042    22965716.245
  -2568742.177 5  -2001614.268 5  23311161.702    23311159.120
  -1266419.736 4   -986819.277 4  24507835.494    24507831.739
  -2213535.164 4  -1724828.086 4  25182516.458    25182510.673
    597964.374 9    465947.114 9  20236192.597    20236192.521
  -1314477.791 9  -1024267.951 9  20794143.392    20794142.491
   3080754.183 4   2400584.666 4  24218853.521    24218848.966
   3334028.230 4   2597944.491 4  24597200.939    24597198.870
 98 10 31  0  2  1.0000000  0 10G31G 3G13G27G10G 2G18G19G16G22
  -1976848.460 7  -1540399.181 7  21481477.922    21481477.892
    295605.899 6    230342.981 5  22216924.561    22216924.159
  -2900058.131 5  -2259782.330 5  22965157.591    22965157.068
  -2571441.178 5  -2003717.384 5  23310647.777    23310645.018
  -1267497.687 4   -987659.247 4  24507630.081    24507627.053
  -2216423.706 4  -1727078.912 4  25181966.357    25181961.997
    598901.791 9    466677.570 9  20236371.034    20236371.025
  -1315748.868 9  -1025258.398 9  20793901.486    20793900.568
   3084039.592 4   2403144.698 4  24219479.626    24219473.560
   3337561.636 4   2600697.785 4  24597872.733    24597872.119
 98 10 31  0  2  2.0000000  0 10G31G 3G13G27G10G 2G18G19G16G22
  -1978684.603 7  -1541829.941 7  21481128.542    21481128.477
    296225.968 6    230826.153 5  22217042.606    22217042.371
  -2902996.371 5  -2262071.856 5  22964598.401    22964597.977
  -2574140.184 5  -2005820.496 5  23310134.469    23310132.140
  -1268575.111 4   -988498.775 4  24507425.030    24507421.585
  -2219312.136 4  -1729329.618 4  25181416.394    25181412.468
    599839.801 9    467408.487 9  20236549.459    20236549.447
  -1317019.731 9  -1026248.681 9  20793659.725    20793658.676
   3087324.940 4   2405704.709 4  24220102.215    24220099.440
   3341094.982 4   2603451.034 4  24598546.083    24598545.307
 98 10 31  0  2  3.0000000  0 10G31G 3G13G27G10G 2G18G19G16G22
  -1980519.914 7  -1543260.050 7  21480779.355    21480779.224
    296846.954 6    231310.036 5  22217160.704    22217160.630
  -2905934.062 5  -2264360.965 5  22964039.421    22964038.774
  -2576838.881 5  -2007923.373 5  23309620.607    23309618.449
  -1269651.650 4   -989337.656 4  24507220.465    24507218.249
  -2222200.161 4  -1731580.044 4  25180867.324    25180860.135
    600778.699 9    468140.096 9  20236728.201    20236728.041
  -1318290.103 9  -1027238.579 9  20793417.909    20793416.912
   3090610.528 4   2408264.932 4  24220729.210    24220724.640
   3344628.557 4   2606204.485 4  24599218.155    24599216.649
 98 10 31  0  2  4.0000000  0 10G31G 3G13G27G10G 2G18G19G16G22
  -1982354.681 7  -1544689.734 7  21480430.245    21480429.908
    297468.566 6    231794.412 5  22217279.076    22217278.562
  -2908871.499 5  -2266649.876 5  22963480.394    22963479.918
  -2579537.559 5  -2010026.238 5  23309107.454    23309105.502
  -1270727.650 4   -990176.086 4  24507014.626    24507012.117
  -2225088.085 4  -1733830.343 4  25180318.355    25180312.211
    601718.190 9    468872.167 9  20236906.949    20236906.901
  -1319560.280 9  -1028228.326 9  20793176.207    20793175.275
   3093896.146 4   2410825.134 4  24221354.076    24221349.229
   3348162.097 4   2608957.884 4  24599890.232    24599888.813
 98 10 31  0  2  5.0000000  0 10G31G 3G13G27G10G 2G18G19G16G22
  -1984188.825 7  -1546118.937 7  21480081.039    21480080.871
    298090.869 6    232279.325 5  22217397.533    22217397.228
  -2911808.611 5  -2268938.533 4  22962921.548    22962921.084
  -2582236.143 5  -2012129.030 5  23308593.913    23308591.419
  -1271803.018 4   -991014.033 4  24506811.456    24506807.772
  -2227975.837 4  -1736080.531 4  25179770.283    25179761.902
    602658.354 9    469604.763 9  20237085.810    20237085.837
  -1320830.172 9  -1029217.851 9  20792934.499    20792933.591
   3097181.785 4   2413385.377 4  24221979.374    24221974.090
   3351695.640 4   2611711.301 4  24600563.195    24600561.650
 98 10 31  0  2  6.0000000  0 10G31G 3G13G27G10G 2G18G19G16G22
  -1986022.291 7  -1547547.609 7  21479732.265    21479732.025
    298713.927 6    232764.824 5  22217516.165    22217515.716
  -2914745.345 5  -2271226.891 4  22962362.868    22962362.217
  -2584934.581 5  -2014231.706 5  23308080.150    23308078.144
  -1272877.684 4   -991851.436 4  24506607.083    24506601.591
  -2230863.325 4  -1738330.513 4  25179219.128    25179212.736
    603599.242 9    470337.923 9  20237264.967    20237264.798
  -1322099.716 9  -1030207.104 9  20792692.989    20792692.056
   3100467.530 4   2415945.699 4  24222605.065    24222598.379
   3355229.275 4   2614464.777 4  24601234.783    24601233.288
 98 10 31  0  2  7.0000000  0 10G31G 3G13G27G10G 2G18G19G16G22
  -1987855.061 7  -1548975.741 7  21479383.388    21479383.474
    299337.751 6    233250.923 5  22217634.648    22217634.461
  -2917681.683 5  -2273514.949 4  22961803.765    22961803.280
  -2587632.843 5  -2016334.244 5  23307566.664    23307564.111
  -1273951.647 4   -992688.284 4  24506402.133    24506399.894
  -2233750.565 4  -1740580.321 4  25178670.417    25178664.440
    604540.872 9    471071.659 9  20237444.020    20237444.047
  -1323368.904 9  -1031196.082 9  20792451.436    20792450.524
   3103753.422 4   2418506.126 4  24223231.217    24223223.663
   3358763.007 4   2617218.347 4  24601907.826    24601906.712
 98 10 31  0  2  8.0000000  0 10G31G 3G13G27G10G 2G18G19G16G22
  -1989687.266 7  -1550403.432 7  21479034.716    21479034.690
    299962.201 6    233737.508 5  22217753.515    22217752.999
  -2920617.752 5  -2275802.784 5  22961245.195    22961244.809
  -2590331.063 5  -2018436.752 5  23307053.625    23307051.135
  -1275025.035 4   -993524.692 4  24506196.981    24506195.092
  -2236637.683 4  -1742829.999 4  25178118.493    25178115.591
    605483.114 9    471805.873 9  20237623.310    20237623.184
  -1324637.862 9  -1032184.878 9  20792209.986    20792209.005
   3107039.293 4   2421066.557 4  24223855.538    24223851.437
   3362296.715 4   2619971.878 4  24602579.748    24602578.683
 98 10 31  0  2  9.0000000  0 10G31G 3G27G13G 2G10G19G18G16G22
  -1991518.934 7  -1551830.703 7  21478686.243    21478686.025
    300587.254 6    234224.566 5  22217872.481    22217871.953
  -2593029.275 5  -2020539.248 5  23306540.398    23306537.617
  -2923553.563 5  -2278090.437 5  22960686.598    22960686.003
  -2239524.676 4  -1745079.616 4  25177570.077    25177564.436
  -1276097.898 4   -994360.671 4  24505993.420    24505990.991
  -1325906.616 9  -1033173.516 9  20791968.472    20791967.580
    606425.943 9    472540.547 9  20237802.725    20237802.617
   3110325.143 4   2423626.935 4  24224479.737    24224473.836
   3365830.365 4   2622725.384 4  24603252.578    24603251.347
 98 10 31  0  2 10.0000000  0 10G31G 3G13G27G10G 2G18G19G16G22
  -1993349.872 7  -1553257.406 7  21478337.804    21478337.592
    301213.105 6    234712.244 5  22217991.768    22217991.147
  -2926488.942 5  -2280377.738 4  22960127.743    22960127.717
  -2595727.276 5  -2022641.590 5  23306026.577    23306024.650
  -1277169.984 4   -995196.078 4  24505790.011    24505786.708
  -2242411.391 4  -1747329.009 4  25177021.112    25177016.983
    607369.548 9    473275.824 9  20237982.270    20237982.118
  -1327174.977 9  -1034161.846 9  20791727.186    20791726.185
   3113611.125 4   2426187.437 4  24225107.185    24225101.116
   3369364.149 4   2625478.983 4  24603924.930    24603924.073
 98 10 31  0  2 11.0000000  0 10G31G 3G13G27G10G 2G18G19G16G22
  -1995180.141 7  -1554683.585 7  21477989.527    21477989.322
    301839.687 6    235200.488 5  22218110.867    22218110.453
  -2929423.948 5  -2282664.753 4  22959569.669    22959568.778
  -2598425.142 5  -2024743.810 5  23305512.870    23305510.686
  -1278241.402 4   -996030.951 4  24505585.531    24505582.383
  -2245297.913 4  -1749578.230 4  25176471.978    25176465.931
    608313.862 9    474011.653 9  20238162.006    20238161.770
  -1328443.015 9  -1035149.928 9  20791485.868    20791484.884
   3116897.199 4   2428748.024 4  24225733.646    24225728.022
   3372898.012 4   2628232.631 4  24604596.952    24604596.929
 98 10 31  0  2 12.0000000  0 10G31G 3G13G27G10G 2G18G19G16G22
  -1997009.906 7  -1556109.375 6  21477641.262    21477641.099
    302466.840 6    235689.182 5  22218230.242    22218229.678
  -2932358.735 5  -2284951.601 4  22959010.825    22959010.324
  -2601123.028 5  -2026846.059 5  23304999.690    23304997.615
  -1279312.320 4   -996865.416 4  24505381.735    24505379.965
  -2248184.332 4  -1751827.380 4  25175924.225    25175917.486
    609258.730 9    474747.914 9  20238341.743    20238341.667
  -1329710.884 9  -1036137.878 9  20791244.572    20791243.579
   3120183.210 4   2431308.562 4  24226357.165    24226350.914
   3376431.774 4   2630986.218 4  24605270.349    24605268.751
 98 10 31  0  2 13.0000000  0 10G31G 3G13G27G10G 2G18G19G16G22
  -1998838.982 7  -1557534.629 7  21477293.190    21477292.997
    303094.759 6    236178.471 5  22218349.666    22218349.297
  -2935293.129 5  -2287238.138 4  22958452.576    22958451.974
  -2603820.739 5  -2028948.167 5  23304486.734    23304483.951
  -1280382.552 4   -997699.359 4  24505178.211    24505175.092
  -2251070.463 4  -1754076.321 4  25175372.203    25175369.949
    610204.337 9    475484.750 9  20238521.775    20238521.609
  -1330978.400 9  -1037125.550 9  20791003.387    20791002.408
   3123469.339 4   2433869.181 4  24226981.925    24226975.068
   3379965.632 4   2633739.870 4  24605941.915    24605939.803
 98 10 31  0  2 14.0000000  0 10G31G 3G13G27G10G 2G18G19G16G22
  -2000667.578 7  -1558959.504 7  21476945.380    21476944.929
    303723.214 6    236668.176 5  22218469.319    22218468.735
  -2938227.332 5  -2289524.526 5  22957894.327    22957893.842
  -2606518.489 5  -2031050.306 5  23303973.507    23303971.065
  -1281452.281 4   -998532.924 4  24504975.273    24504972.858
  -2253956.653 4  -1756325.267 4  25174827.634    25174817.963
    611150.472 9    476221.999 9  20238701.766    20238701.674
  -1332245.761 9  -1038113.102 9  20790762.231    20790761.262
   3126755.392 4   2436429.725 4  24227607.130    24227603.337
   3383499.354 4   2636493.419 4  24606614.811    24606612.693
 98 10 31  0  2 15.0000000  0 10G31G 3G13G27G10G 2G18G19G16G22
  -2002495.631 7  -1560383.961 7  21476597.462    21476597.148
    304352.268 6    237158.351 5  22218589.134    22218588.669
  -2941161.283 5  -2291810.725 5  22957335.650    22957335.597
  -2609216.239 5  -2033152.435 5  23303459.864    23303456.922
  -1282521.505 4   -999366.073 4  24504770.965    24504767.433
  -2256842.662 4  -1758574.121 4  25174275.879    25174269.594
    612097.200 9    476959.709 9  20238881.922    20238881.823
  -1333512.924 9  -1039100.500 9  20790521.113    20790520.206
   3130041.392 4   2438990.236 4  24228232.500    24228227.161
   3387033.026 4   2639246.941 4  24607286.696    24607286.733
 98 10 31  0  2 16.0000000  0 10G31G 3G13G27G10G 2G18G19G16G22
  -2004323.179 7  -1561808.019 7  21476249.538    21476249.252
    304981.901 6    237648.975 5  22218708.855    22218708.089
  -2944095.016 5  -2294096.746 4  22956777.397    22956777.126
  -2611913.957 5  -2035254.557 5  23302946.459    23302944.093
  -1283590.192 4  -1000198.808 4  24504568.429    24504565.409
  -2259728.597 4  -1760822.907 4  25173726.777    25173718.268
    613044.480 9    477697.849 9  20239062.261    20239062.139
  -1334779.914 9  -1040087.763 9  20790280.009    20790278.951
   3133327.352 4   2441550.711 4  24228859.202    24228853.252
   3390566.604 4   2642000.375 4  24607959.892    24607958.307
 98 10 31  0  2 17.0000000  0 10G31G 3G13G27G10G 2G18G19G16G22
  -2006150.059 7  -1563231.562 7  21475901.977    21475901.661
    305612.260 6    238140.163 5  22218828.888    22218828.639
  -2947028.391 5  -2296382.492 5  22956219.283    22956219.040
  -2614611.545 5  -2037356.566 5  23302433.629    23302430.253
  -1284658.218 4  -1001031.036 4  24504364.119    24504361.980
  -2262614.346 4  -1763071.534 4  25173177.866    25173171.812
    613992.465 9    478436.539 9  20239242.632    20239242.408
  -1336046.590 9  -1041074.781 9  20790038.975    20790037.936
   3136613.375 4   2444111.270 4  24229483.440    24229479.035
   3394100.269 4   2644753.881 4  24608631.817    24608630.912
 98 10 31  0  2 18.0000000  0 10G31G 3G13G27G10G 2G18G19G16G22
  -2007976.423 7  -1564654.700 7  21475554.447    21475554.232
    306243.197 6    238631.802 5  22218948.911    22218948.534
  -2949961.522 5  -2298668.043 4  22955661.131    22955660.970
  -2617309.114 5  -2039458.570 5  23301920.041    23301917.001
  -1285725.745 4  -1001862.870 4  24504162.155    24504159.328
  -2265500.009 4  -1765320.074 4  25172628.349    25172622.224
    614941.020 9    479175.674 9  20239423.101    20239422.986
  -1337313.084 9  -1042061.659 9  20789798.021    20789796.965
   3139899.385 4   2446671.791 4  24230109.068    24230106.117
   3397633.843 4   2647507.317 4  24609304.883    24609302.804
 98 10 31  0  2 19.0000000  0 10G31G 3G13G27G10G 2G18G19G16G22
  -2009802.295 7  -1566077.454 7  21475207.050    21475206.596
    306874.696 6    239123.882 5  22219068.965    22219068.334
  -2952894.455 5  -2300953.446 5  22955102.928    22955102.865
  -2620006.694 5  -2041560.578 5  23301406.016    23301404.384
  -1286792.765 4  -1002694.325 4  24503958.947    24503955.262
  -2268385.609 4  -1767568.606 4  25172079.588    25172073.305
    615890.113 9    479915.226 9  20239603.661    20239603.552
  -1338579.438 9  -1043048.427 9  20789557.028    20789555.932
   3143185.308 4   2449232.247 4  24230734.187    24230729.372
   3401167.320 4   2650260.679 4  24609976.454    24609976.172
 98 10 31  0  2 20.0000000  0 10G31G 3G13G27G10G 2G18G19G16G22
  -2011627.945 7  -1567500.035 7  21474859.412    21474859.260
    307506.471 6    239616.178 5  22219189.195    22219188.670
  -2955827.449 5  -2303238.892 4  22954544.567    22954544.738
  -2622704.575 5  -2043662.812 5  23300893.131    23300890.517
  -1287859.561 4  -1003525.601 4  24503755.376    24503753.212
  -2271271.442 4  -1769817.291 4  25171530.341    25171522.702
    616839.478 9    480654.991 9  20239784.335    20239784.245
  -1339845.906 9  -1044035.285 9  20789315.896    20789315.036
   3146470.918 4   2451792.460 4  24231358.710    24231356.171
   3404700.430 4   2653013.756 4  24610649.060    24610648.016
 98 10 31  0  2 21.0000000  0 10G31G 3G13G27G10G 2G18G19G16G22
  -2013453.214 7  -1568922.324 7  21474512.215    21474511.795
    308138.696 6    240108.822 5  22219309.453    22219309.028
  -2958760.362 5  -2305524.272 4  22953986.951    22953985.967
  -2625402.595 5  -2045765.165 5  23300379.606    23300376.872
  -1288926.013 4  -1004356.578 4  24503552.100    24503549.764
  -2274157.326 4  -1772066.035 4  25170979.807    25170970.809
    617789.264 9    481395.085 9  20239965.011    20239965.004
  -1341112.333 9  -1045022.108 9  20789075.039    20789073.976
   3149756.332 4   2454352.517 4  24231986.058    24231979.465
   3408233.324 4   2655766.666 4  24611321.245    24611320.497
 98 10 31  0  2 22.0000000  0 10G31G 3G13G27G10G 2G18G19G16G22
  -2015277.993 7  -1570344.225 7  21474165.049    21474164.448
    308771.465 6    240601.890 5  22219429.893    22219429.428
  -2961693.066 5  -2307809.491 4  22953428.599    22953428.473
  -2628100.630 5  -2047867.529 5  23299866.421    23299863.440
  -1289991.969 4  -1005187.188 4  24503350.008    24503346.861
  -2277043.130 4  -1774314.727 4  25170430.400    25170426.619
    618739.573 9    482135.587 9  20240145.922    20240145.794
  -1342378.606 9  -1046008.814 9  20788833.994    20788833.050
   3153041.650 4   2456912.505 4  24232608.628    24232604.972
   3411766.092 4   2658519.457 4  24611993.466    24611993.137
 98 10 31  0  2 23.0000000  0 10G31G 3G13G27G10G 2G18G19G16G22
  -2017102.070 7  -1571765.583 7  21473817.844    21473817.559
    309404.990 6    241095.545 5  22219550.395    22219549.883
  -2964625.361 5  -2310094.397 4  22952870.833    22952869.900
  -2630798.508 5  -2049969.764 5  23299352.664    23299350.082
  -1291057.230 4  -1006017.267 4  24503146.866    24503143.832
  -2279928.726 4  -1776563.222 4  25169882.524    25169876.077
    619690.625 9    482876.666 9  20240326.864    20240326.768
  -1343644.540 9  -1046995.251 9  20788593.092    20788592.008
   3156327.102 4   2459472.601 4  24233234.830    24233231.055
   3415298.942 4   2661272.333 4  24612665.790    24612665.045
 98 10 31  0  2 24.0000000  0 10G31G 3G13G27G10G 2G18G19G16G22
  -2018925.579 7  -1573186.495 7  21473470.762    21473470.504
    310039.132 6    241589.682 5  22219671.077    22219670.814
  -2967557.396 5  -2312379.099 4  22952313.012    22952312.328
  -2633496.346 5  -2052071.974 5  23298839.068    23298837.132
  -1292121.953 4  -1006846.920 4  24502944.595    24502940.707
  -2282814.149 4  -1778811.613 4  25169332.330    25169327.528
    620642.281 9    483618.215 9  20240508.068    20240507.935
  -1344910.247 9  -1047981.517 9  20788352.220    20788351.239
   3159612.541 4   2462032.676 4  24233860.668    24233856.040
   3418831.753 4   2664025.171 4  24613338.347    24613336.206
 98 10 31  0  2 25.0000000  0 10G31G 3G13G27G10G 2G18G19G16G22
  -2020748.518 7  -1574606.963 7  21473123.801    21473123.494
    310673.893 6    242084.302 5  22219791.954    22219791.484
  -2970489.163 5  -2314663.586 5  22951755.076    22951754.308
  -2636194.154 5  -2054174.155 5  23298326.535    23298323.395
  -1293186.144 4  -1007676.154 4  24502741.851    24502739.469
  -2285699.462 4  -1781059.895 4  25168784.377    25168775.915
    621594.541 9    484360.238 9  20240689.231    20240689.180
  -1346175.753 9  -1048967.625 9  20788111.556    20788110.387
   3162897.936 4   2464592.728 4  24234486.513    24234479.372
   3422364.520 4   2666777.977 4  24614010.142    24614009.868
 98 10 31  0  2 26.0000000  0 10G31G 3G13G27G10G 2G18G19G16G22
  -2022570.809 7  -1576026.931 7  21472777.080    21472776.903
    311309.358 6    242579.473 5  22219912.785    22219912.363
  -2973420.562 5  -2316947.799 4  22951196.914    22951196.748
  -2638891.851 5  -2056276.246 5  23297812.474    23297810.092
  -1294249.691 4  -1008504.900 4  24502539.302    24502534.746
  -2288584.591 4  -1783308.032 4  25168235.700    25168229.169
    622547.482 9    485102.788 9  20240870.582    20240870.516
  -1347440.974 9  -1049953.510 9  20787870.662    20787869.592
   3166183.388 4   2467152.841 4  24235110.837    24235103.073
   3425897.317 4   2669530.816 4  24614682.977    24614681.322
 98 10 31  0  2 27.0000000  0 10G31G 3G13G27G10G 2G18G19G16G22
  -2024392.353 7  -1577446.312 7  21472430.557    21472430.190
    311945.636 6    243075.276 5  22220033.970    22220033.398
  -2976351.515 5  -2319231.652 5  22950639.162    22950638.841
  -2641589.319 5  -2058378.170 5  23297299.462    23297296.906
  -1295312.528 4  -1009333.081 4  24502337.063    24502334.625
  -2291469.378 4  -1785555.938 4  25167685.217    25167678.931
    623501.213 9    485845.956 9  20241052.066    20241051.996
  -1348705.797 9  -1050939.083 9  20787629.957    20787628.890
   3169469.081 4   2469713.100 4  24235734.172    24235730.177
   3429430.266 4   2672283.759 4  24615354.910    24615354.101
 98 10 31  0  2 28.0000000  0 10G31G 3G13G27G10G 2G18G19G16G22
  -2026213.335 7  -1578865.256 7  21472083.894    21472083.767
    312582.535 6    243571.561 5  22220155.116    22220154.714
  -2979282.187 5  -2321515.294 5  22950081.408    22950081.354
  -2644286.744 5  -2060480.058 5  23296786.260    23296783.841
  -1296374.821 4  -1010160.839 4  24502135.681    24502132.706
  -2294354.060 4  -1787803.719 4  25167135.879    25167130.418
    624455.539 9    486589.587 9  20241233.742    20241233.643
  -1349970.415 9  -1051924.498 9  20787389.289    20787388.249
   3172754.720 4   2472273.326 4  24236360.271    24236355.439
   3432963.161 4   2675036.673 4  24616027.123    24616026.376
 98 10 31  0  2 29.0000000  0 10G31G 3G13G27G10G 2G18G19G16G22
  -2028033.888 7  -1580283.868 7  21471737.683    21471737.175
    313219.922 6    244068.228 5  22220276.431    22220276.132
  -2982212.717 5  -2323798.815 4  22949523.795    22949523.617
  -2646984.271 5  -2062582.024 5  23296272.597    23296270.499
  -1297436.708 4  -1010988.272 4  24501932.657    24501929.189
  -2297238.756 4  -1790051.529 4  25166587.898    25166581.861
    625410.331 9    487333.580 9  20241415.413    20241415.386
  -1351234.936 9  -1052909.839 9  20787148.684    20787147.671
   3176040.205 4   2474833.450 4  24236985.609    24236980.313
   3436495.887 4   2677789.452 4  24616699.431    24616698.249
 98 10 31  0  2 30.0000000  0 10G31G 3G13G27G10G 2G18G19G16G22
  -2029853.844 7  -1581702.013 7  21471391.230    21471390.751
    313857.964 6    244565.402 5  22220397.933    22220397.621
  -2985142.933 5  -2326082.102 4  22948966.469    22948966.245
  -2649681.728 5  -2064683.940 5  23295759.710    23295757.584
  -1298498.008 4  -1011815.259 4  24501730.271    24501726.610
  -2300123.265 4  -1792299.205 4  25166040.482    25166033.911
    626365.761 9    488078.070 9  20241597.352    20241597.245
  -1352499.199 9  -1053894.978 9  20786908.127    20786907.141
   3179325.713 4   2477393.579 4  24237612.847    24237607.583
   3440028.602 4   2680542.218 4  24617371.784    24617370.375
